Time,TemperatureF,DewpointF,PressureIn,WindDirection,WindDirectionDegrees,WindSpeedMPH,WindSpeedGustMPH,Humidity,HourlyPrecipIn,Conditions,Clouds,dailyrainin,SolarRadiationWatts/m^2,SoftwareType,DateUTC
2013-10-05 00:00:00,70.2,67.8,29.95,SSE,162,1.1,5.8,92,0.00,,,0.00,0.00,VWS V14.01,2013-10-05 05:00:00,
2013-10-05 00:01:00,70.1,67.7,29.95,SSE,162,1.1,1.1,92,0.00,,,0.00,0.00,VWS V14.01,2013-10-05 05:01:00,
2013-10-05 00:03:00,70.1,67.7,29.95,SSE,164,2.3,8.1,92,0.00,,,0.00,0.00,VWS V14.01,2013-10-05 05:03:00,
2013-10-05 00:05:00,70.0,67.6,29.95,SSE,164,2.3,8.1,92,0.00,,,0.00,0.00,VWS V14.01,2013-10-05 05:05:00,
2013-10-05 00:06:00,69.9,67.5,29.95,SSE,159,3.4,4.6,92,0.00,,,0.00,0.00,VWS V14.01,2013-10-05 05:06:00,
2013-10-05 00:08:00,69.9,67.5,29.95,SSE,160,1.1,8.1,92,0.00,,,0.00,0.00,VWS V14.01,2013-10-05 05:08:00,
2013-10-05 00:10:00,69.9,67.8,29.95,SSE,158,5.8,8.1,93,0.00,,,0.00,0.00,VWS V14.01,2013-10-05 05:10:00,
2013-10-05 00:11:00,69.9,67.8,29.95,SSE,158,2.3,4.6,93,0.00,,,0.00,0.00,VWS V14.01,2013-10-05 05:11:00,
2013-10-05 00:12:00,70.0,67.9,29.95,SSE,160,3.4,6.9,93,0.00,,,0.00,0.00,VWS V14.01,2013-10-05 05:12:00,
2013-10-05 00:14:00,70.0,67.9,29.95,SSE,160,2.3,6.9,93,0.00,,,0.00,0.00,VWS V14.01,2013-10-05 05:14:00,
2013-10-05 00:15:00,70.0,67.9,29.95,SSE,160,3.4,6.9,93,0.00,,,0.00,0.00,VWS V14.01,2013-10-05 05:15:00,
2013-10-05 00:16:00,70.1,68.0,29.95,SSE,160,0.0,4.6,93,0.00,,,0.00,0.00,VWS V14.01,2013-10-05 05:16:00,
2013-10-05 00:17:00,70.1,68.0,29.95,SSE,160,3.4,4.6,93,0.00,,,0.00,0.00,VWS V14.01,2013-10-05 05:17:00,
2013-10-05 00:18:00,70.1,68.0,29.95,SSE,160,5.8,5.8,93,0.00,,,0.00,0.00,VWS V14.01,2013-10-05 05:18:00,
2013-10-05 00:19:00,70.1,68.0,29.95,SSE,160,4.6,5.8,93,0.00,,,0.00,0.00,VWS V14.01,2013-10-05 05:19:00,
2013-10-05 00:20:00,70.1,68.0,29.94,SSE,160,5.8,5.8,93,0.00,,,0.00,0.00,VWS V14.01,2013-10-05 05:20:00,
2013-10-05 00:21:00,70.1,68.0,29.94,SSE,161,5.8,6.9,93,0.00,,,0.00,0.00,VWS V14.01,2013-10-05 05:21:00,
2013-10-05 00:22:00,70.1,68.0,29.95,SSE,162,4.6,6.9,93,0.00,,,0.00,0.00,VWS V14.01,2013-10-05 05:22:00,
2013-10-05 00:24:00,70.1,68.0,29.95,SSE,161,1.1,6.9,93,0.00,,,0.00,0.00,VWS V14.01,2013-10-05 05:24:00,
2013-10-05 00:25:00,70.1,68.0,29.95,SSE,161,3.4,6.9,93,0.00,,,0.00,0.00,VWS V14.01,2013-10-05 05:25:00,
2013-10-05 00:27:00,70.0,67.9,29.95,SSE,161,2.3,6.9,93,0.00,,,0.00,0.00,VWS V14.01,2013-10-05 05:27:00,
2013-10-05 00:28:00,70.0,67.9,29.95,SSE,161,0.0,6.9,93,0.00,,,0.00,0.00,VWS V14.01,2013-10-05 05:28:00,
2013-10-05 00:29:00,70.0,67.9,29.95,SSE,162,2.3,6.9,93,0.00,,,0.00,0.00,VWS V14.01,2013-10-05 05:29:00,
2013-10-05 00:30:00,69.9,67.8,29.95,SSE,162,3.4,6.9,93,0.00,,,0.00,0.00,VWS V14.01,2013-10-05 05:30:00,
2013-10-05 00:31:00,70.0,67.9,29.95,SSE,157,2.3,4.6,93,0.00,,,0.00,0.00,VWS V14.01,2013-10-05 05:31:00,
2013-10-05 00:33:00,70.0,67.9,29.95,SSE,159,0.0,5.8,93,0.00,,,0.00,0.00,VWS V14.01,2013-10-05 05:33:00,
2013-10-05 00:34:00,70.0,67.9,29.94,SSE,159,3.4,5.8,93,0.00,,,0.00,0.00,VWS V14.01,2013-10-05 05:34:00,
2013-10-05 00:35:00,70.0,67.9,29.95,SSE,158,3.4,8.1,93,0.00,,,0.00,0.00,VWS V14.01,2013-10-05 05:35:00,
2013-10-05 00:36:00,70.1,68.0,29.94,SSE,158,0.0,3.4,93,0.00,,,0.00,0.00,VWS V14.01,2013-10-05 05:36:00,
2013-10-05 00:39:00,70.1,68.0,29.95,SSE,168,5.8,9.2,93,0.00,,,0.00,0.00,VWS V14.01,2013-10-05 05:39:00,
2013-10-05 00:40:00,70.1,68.0,29.95,South,170,3.4,9.2,93,0.00,,,0.00,0.00,VWS V14.01,2013-10-05 05:40:00,
2013-10-05 00:42:00,70.1,68.0,29.95,SSE,167,3.4,8.1,93,0.00,,,0.00,0.00,VWS V14.01,2013-10-05 05:42:00,
2013-10-05 00:43:00,70.1,68.0,29.95,SSE,167,5.8,8.1,93,0.00,,,0.00,0.00,VWS V14.01,2013-10-05 05:43:00,
2013-10-05 00:44:00,70.1,68.0,29.94,SSE,167,6.9,9.2,93,0.00,,,0.00,0.00,VWS V14.01,2013-10-05 05:44:00,
2013-10-05 00:45:00,70.1,68.0,29.94,SSE,168,4.6,9.2,93,0.00,,,0.00,0.00,VWS V14.01,2013-10-05 05:45:00,
2013-10-05 00:47:00,70.1,68.0,29.95,South,175,10.3,10.3,93,0.00,,,0.00,0.00,VWS V14.01,2013-10-05 05:47:00,
2013-10-05 00:48:00,70.2,68.1,29.95,South,175,1.1,10.3,93,0.00,,,0.00,0.00,VWS V14.01,2013-10-05 05:48:00,
2013-10-05 00:50:00,70.2,68.1,29.94,South,177,0.0,10.3,93,0.00,,,0.00,0.00,VWS V14.01,2013-10-05 05:50:00,
2013-10-05 00:53:00,70.1,68.0,29.95,South,172,5.8,9.2,93,0.00,,,0.00,0.00,VWS V14.01,2013-10-05 05:53:00,
2013-10-05 00:54:00,70.1,68.0,29.95,South,171,5.8,9.2,93,0.00,,,0.00,0.00,VWS V14.01,2013-10-05 05:54:00,
2013-10-05 00:55:00,70.1,68.0,29.95,South,171,5.8,9.2,93,0.00,,,0.00,0.00,VWS V14.01,2013-10-05 05:55:00,
2013-10-05 00:56:00,70.1,68.0,29.95,South,174,5.8,5.8,93,0.00,,,0.00,0.00,VWS V14.01,2013-10-05 05:56:00,
2013-10-05 00:58:00,70.1,68.0,29.94,South,178,4.6,8.1,93,0.00,,,0.00,0.00,VWS V14.01,2013-10-05 05:58:00,
2013-10-05 01:00:00,70.1,68.0,29.94,South,178,4.6,9.2,93,0.00,,,0.00,0.00,VWS V14.01,2013-10-05 06:00:00,
2013-10-05 01:01:00,70.1,68.0,29.94,South,178,1.1,2.3,93,0.00,,,0.00,0.00,VWS V14.01,2013-10-05 06:01:00,
2013-10-05 01:04:00,70.1,68.0,29.94,South,177,5.8,6.9,93,0.00,,,0.00,0.00,VWS V14.01,2013-10-05 06:04:00,
2013-10-05 01:05:00,70.2,68.1,29.95,South,179,3.4,8.1,93,0.00,,,0.00,0.00,VWS V14.01,2013-10-05 06:05:00,
2013-10-05 01:06:00,70.1,68.0,29.95,South,179,5.8,8.1,93,0.00,,,0.00,0.00,VWS V14.01,2013-10-05 06:06:00,
2013-10-05 01:08:00,70.1,68.0,29.95,South,175,4.6,8.1,93,0.00,,,0.00,0.00,VWS V14.01,2013-10-05 06:08:00,
2013-10-05 01:09:00,70.1,68.0,29.95,South,184,6.9,8.1,93,0.00,,,0.00,0.00,VWS V14.01,2013-10-05 06:09:00,
2013-10-05 01:10:00,70.2,68.1,29.95,South,178,6.9,9.2,93,0.00,,,0.00,0.00,VWS V14.01,2013-10-05 06:10:00,
2013-10-05 01:11:00,70.2,68.1,29.95,South,180,5.8,8.1,93,0.00,,,0.00,0.00,VWS V14.01,2013-10-05 06:11:00,
2013-10-05 01:12:00,70.2,68.1,29.95,South,180,4.6,8.1,93,0.00,,,0.00,0.00,VWS V14.01,2013-10-05 06:12:00,
2013-10-05 01:13:00,70.2,68.1,29.95,South,180,4.6,8.1,93,0.00,,,0.00,0.00,VWS V14.01,2013-10-05 06:13:00,
2013-10-05 01:14:00,70.2,68.1,29.95,South,180,6.9,8.1,93,0.00,,,0.00,0.00,VWS V14.01,2013-10-05 06:14:00,
2013-10-05 01:15:00,70.2,68.1,29.95,South,179,5.8,8.1,93,0.00,,,0.00,0.00,VWS V14.01,2013-10-05 06:15:00,
2013-10-05 01:16:00,70.2,68.1,29.95,South,172,9.2,9.2,93,0.00,,,0.00,0.00,VWS V14.01,2013-10-05 06:16:00,
2013-10-05 01:17:00,70.2,68.1,29.95,South,174,3.4,9.2,93,0.00,,,0.00,0.00,VWS V14.01,2013-10-05 06:17:00,
2013-10-05 01:18:00,70.2,68.1,29.95,South,174,2.3,9.2,93,0.00,,,0.00,0.00,VWS V14.01,2013-10-05 06:18:00,
2013-10-05 01:20:00,70.1,68.0,29.94,South,174,4.6,9.2,93,0.00,,,0.00,0.00,VWS V14.01,2013-10-05 06:20:00,
2013-10-05 01:21:00,70.2,68.1,29.95,South,176,9.2,9.2,93,0.00,,,0.00,0.00,VWS V14.01,2013-10-05 06:21:00,
2013-10-05 01:23:00,70.2,68.1,29.94,South,179,3.4,9.2,93,0.00,,,0.00,0.00,VWS V14.01,2013-10-05 06:23:00,
2013-10-05 01:25:00,70.2,68.1,29.95,South,178,8.1,9.2,93,0.00,,,0.00,0.00,VWS V14.01,2013-10-05 06:25:00,
2013-10-05 01:28:00,70.2,68.1,29.94,South,173,8.1,8.1,93,0.00,,,0.00,0.00,VWS V14.01,2013-10-05 06:28:00,
2013-10-05 01:29:00,70.2,68.1,29.94,South,173,2.3,8.1,93,0.00,,,0.00,0.00,VWS V14.01,2013-10-05 06:29:00,
2013-10-05 01:30:00,70.2,68.1,29.94,South,173,1.1,8.1,93,0.00,,,0.00,0.00,VWS V14.01,2013-10-05 06:30:00,
2013-10-05 01:33:00,70.1,68.0,29.94,South,173,4.6,6.9,93,0.00,,,0.00,0.00,VWS V14.01,2013-10-05 06:33:00,
2013-10-05 01:34:00,70.1,68.0,29.94,South,173,3.4,6.9,93,0.00,,,0.00,0.00,VWS V14.01,2013-10-05 06:34:00,
2013-10-05 01:35:00,70.1,68.0,29.94,South,173,4.6,6.9,93,0.00,,,0.00,0.00,VWS V14.01,2013-10-05 06:35:00,
2013-10-05 01:36:00,70.0,67.9,29.94,South,175,5.8,6.9,93,0.00,,,0.00,0.00,VWS V14.01,2013-10-05 06:36:00,
2013-10-05 01:37:00,70.0,67.9,29.94,South,174,3.4,6.9,93,0.00,,,0.00,0.00,VWS V14.01,2013-10-05 06:37:00,
2013-10-05 01:38:00,70.0,67.9,29.94,South,174,5.8,6.9,93,0.00,,,0.00,0.00,VWS V14.01,2013-10-05 06:38:00,
2013-10-05 01:39:00,70.0,67.9,29.94,South,174,2.3,6.9,93,0.00,,,0.00,0.00,VWS V14.01,2013-10-05 06:39:00,
2013-10-05 01:40:00,70.0,67.9,29.94,South,174,2.3,6.9,93,0.00,,,0.00,0.00,VWS V14.01,2013-10-05 06:40:00,
2013-10-05 01:41:00,69.9,67.8,29.94,South,174,2.3,4.6,93,0.00,,,0.00,0.00,VWS V14.01,2013-10-05 06:41:00,
2013-10-05 01:42:00,69.9,67.8,29.94,South,170,3.4,5.8,93,0.00,,,0.00,0.00,VWS V14.01,2013-10-05 06:42:00,
2013-10-05 01:44:00,69.9,67.8,29.94,South,170,1.1,5.8,93,0.00,,,0.00,0.00,VWS V14.01,2013-10-05 06:44:00,
2013-10-05 01:45:00,69.9,67.8,29.94,South,172,8.1,8.1,93,0.00,,,0.00,0.00,VWS V14.01,2013-10-05 06:45:00,
2013-10-05 01:46:00,69.9,67.8,29.94,South,171,4.6,5.8,93,0.00,,,0.00,0.00,VWS V14.01,2013-10-05 06:46:00,
2013-10-05 01:47:00,69.9,67.8,29.94,South,171,4.6,6.9,93,0.00,,,0.00,0.00,VWS V14.01,2013-10-05 06:47:00,
2013-10-05 01:49:00,69.9,67.8,29.94,SSE,167,1.1,8.1,93,0.00,,,0.00,0.00,VWS V14.01,2013-10-05 06:49:00,
2013-10-05 01:50:00,69.8,67.7,29.94,SSE,167,3.4,8.1,93,0.00,,,0.00,0.00,VWS V14.01,2013-10-05 06:50:00,
2013-10-05 01:51:00,69.9,67.8,29.94,SSE,163,1.1,8.1,93,0.00,,,0.00,0.00,VWS V14.01,2013-10-05 06:51:00,
2013-10-05 01:53:00,69.8,67.7,29.94,SSE,163,1.1,8.1,93,0.00,,,0.00,0.00,VWS V14.01,2013-10-05 06:53:00,
2013-10-05 01:55:00,69.8,67.7,29.94,South,176,4.6,10.3,93,0.00,,,0.00,0.00,VWS V14.01,2013-10-05 06:55:00,
2013-10-05 01:56:00,69.8,67.7,29.94,South,174,6.9,8.1,93,0.00,,,0.00,0.00,VWS V14.01,2013-10-05 06:56:00,
2013-10-05 02:00:00,69.8,67.7,29.94,South,171,3.4,8.1,93,0.00,,,0.00,0.00,VWS V14.01,2013-10-05 07:00:00,
2013-10-05 02:01:00,69.8,67.7,29.94,South,175,3.4,5.8,93,0.00,,,0.00,0.00,VWS V14.01,2013-10-05 07:01:00,
2013-10-05 02:02:00,69.8,67.7,29.94,South,175,2.3,5.8,93,0.00,,,0.00,0.00,VWS V14.01,2013-10-05 07:02:00,
2013-10-05 02:05:00,69.9,67.8,29.93,South,171,4.6,6.9,93,0.00,,,0.00,0.00,VWS V14.01,2013-10-05 07:05:00,
2013-10-05 02:06:00,69.8,67.7,29.93,South,174,6.9,9.2,93,0.00,,,0.00,0.00,VWS V14.01,2013-10-05 07:06:00,
2013-10-05 02:07:00,69.8,67.7,29.93,South,174,2.3,9.2,93,0.00,,,0.00,0.00,VWS V14.01,2013-10-05 07:07:00,
2013-10-05 02:08:00,69.8,67.7,29.93,South,175,10.3,10.3,93,0.00,,,0.00,0.00,VWS V14.01,2013-10-05 07:08:00,
2013-10-05 02:10:00,69.8,67.7,29.93,South,176,4.6,4.6,93,0.00,,,0.00,0.00,VWS V14.01,2013-10-05 07:10:00,
2013-10-05 02:11:00,69.8,67.7,29.93,South,176,4.6,4.6,93,0.00,,,0.00,0.00,VWS V14.01,2013-10-05 07:11:00,
2013-10-05 02:12:00,69.8,67.7,29.93,South,175,5.8,8.1,93,0.00,,,0.00,0.00,VWS V14.01,2013-10-05 07:12:00,
2013-10-05 02:13:00,69.8,67.7,29.93,South,175,8.1,8.1,93,0.00,,,0.00,0.00,VWS V14.01,2013-10-05 07:13:00,
2013-10-05 02:14:00,69.9,67.8,29.93,South,176,8.1,9.2,93,0.00,,,0.00,0.00,VWS V14.01,2013-10-05 07:14:00,
2013-10-05 02:15:00,69.9,67.8,29.93,South,176,3.5,9.2,93,0.00,,,0.00,0.00,VWS V14.01,2013-10-05 07:15:00,
2013-10-05 02:16:00,69.9,67.8,29.93,South,175,6.9,6.9,93,0.00,,,0.00,0.00,VWS V14.01,2013-10-05 07:16:00,
2013-10-05 02:17:00,69.9,67.8,29.93,South,175,3.4,6.9,93,0.00,,,0.00,0.00,VWS V14.01,2013-10-05 07:17:00,
2013-10-05 02:18:00,69.9,67.8,29.93,South,174,0.0,6.9,93,0.00,,,0.00,0.00,VWS V14.01,2013-10-05 07:18:00,
2013-10-05 02:19:00,69.9,67.8,29.93,South,174,5.8,6.9,93,0.00,,,0.00,0.00,VWS V14.01,2013-10-05 07:19:00,
2013-10-05 02:20:00,69.9,67.8,29.93,South,178,5.8,5.8,93,0.00,,,0.00,0.00,VWS V14.01,2013-10-05 07:20:00,
2013-10-05 02:22:00,69.9,67.8,29.93,South,178,2.3,8.1,93,0.00,,,0.00,0.00,VWS V14.01,2013-10-05 07:22:00,
2013-10-05 02:23:00,69.8,67.7,29.93,South,178,0.0,8.1,93,0.00,,,0.00,0.00,VWS V14.01,2013-10-05 07:23:00,
2013-10-05 02:24:00,69.8,67.7,29.93,South,180,4.6,8.1,93,0.00,,,0.00,0.00,VWS V14.01,2013-10-05 07:24:00,
2013-10-05 02:25:00,69.8,67.7,29.93,South,180,4.6,8.1,93,0.00,,,0.00,0.00,VWS V14.01,2013-10-05 07:25:00,
2013-10-05 02:26:00,69.8,67.7,29.93,South,175,8.1,9.2,93,0.00,,,0.00,0.00,VWS V14.01,2013-10-05 07:26:00,
2013-10-05 02:27:00,69.8,67.7,29.93,South,175,4.6,9.2,93,0.00,,,0.00,0.00,VWS V14.01,2013-10-05 07:27:00,
2013-10-05 02:28:00,69.9,67.8,29.93,South,175,4.6,9.2,93,0.00,,,0.00,0.00,VWS V14.01,2013-10-05 07:28:00,
2013-10-05 02:29:00,69.9,67.8,29.93,South,175,2.3,9.2,93,0.00,,,0.00,0.00,VWS V14.01,2013-10-05 07:29:00,
2013-10-05 02:30:00,69.9,67.8,29.93,South,175,2.3,9.2,93,0.00,,,0.00,0.00,VWS V14.01,2013-10-05 07:30:00,
2013-10-05 02:32:00,69.9,67.8,29.93,South,175,1.1,6.9,93,0.00,,,0.00,0.00,VWS V14.01,2013-10-05 07:32:00,
2013-10-05 02:34:00,69.9,67.8,29.93,South,175,5.8,6.9,93,0.00,,,0.00,0.00,VWS V14.01,2013-10-05 07:34:00,
2013-10-05 02:35:00,69.9,67.8,29.93,South,175,5.8,5.8,93,0.00,,,0.00,0.00,VWS V14.01,2013-10-05 07:35:00,
2013-10-05 02:36:00,69.8,67.7,29.93,South,177,6.9,6.9,93,0.00,,,0.00,0.00,VWS V14.01,2013-10-05 07:36:00,
2013-10-05 02:37:00,69.8,67.7,29.93,South,177,4.6,6.9,93,0.00,,,0.00,0.00,VWS V14.01,2013-10-05 07:37:00,
2013-10-05 02:38:00,69.8,67.7,29.93,South,177,6.9,8.1,93,0.00,,,0.00,0.00,VWS V14.01,2013-10-05 07:38:00,
2013-10-05 02:39:00,69.8,67.7,29.93,South,178,4.6,8.1,93,0.00,,,0.00,0.00,VWS V14.01,2013-10-05 07:39:00,
2013-10-05 02:40:00,69.8,67.7,29.93,South,190,6.9,8.1,93,0.00,,,0.00,0.00,VWS V14.01,2013-10-05 07:40:00,
2013-10-05 02:41:00,69.8,67.7,29.93,South,188,4.6,8.1,93,0.00,,,0.00,0.00,VWS V14.01,2013-10-05 07:41:00,
2013-10-05 02:42:00,69.8,67.7,29.93,South,188,2.3,8.1,93,0.00,,,0.00,0.00,VWS V14.01,2013-10-05 07:42:00,
2013-10-05 02:43:00,69.8,67.7,29.93,South,188,5.8,8.1,93,0.00,,,0.00,0.00,VWS V14.01,2013-10-05 07:43:00,
2013-10-05 02:44:00,69.8,67.7,29.92,South,187,1.1,11.5,93,0.00,,,0.00,0.00,VWS V14.01,2013-10-05 07:44:00,
2013-10-05 02:45:00,69.8,67.7,29.92,South,187,3.4,11.5,93,0.00,,,0.00,0.00,VWS V14.01,2013-10-05 07:45:00,
2013-10-05 02:47:00,69.9,67.8,29.93,South,187,3.4,5.8,93,0.00,,,0.00,0.00,VWS V14.01,2013-10-05 07:47:00,
2013-10-05 02:48:00,69.9,67.8,29.92,South,186,8.1,8.1,93,0.00,,,0.00,0.00,VWS V14.01,2013-10-05 07:48:00,
2013-10-05 02:49:00,69.9,67.8,29.92,South,177,3.4,8.1,93,0.00,,,0.00,0.00,VWS V14.01,2013-10-05 07:49:00,
2013-10-05 02:50:00,69.9,67.8,29.93,SSW,192,4.6,9.2,93,0.00,,,0.00,0.00,VWS V14.01,2013-10-05 07:50:00,
2013-10-05 02:52:00,70.0,67.9,29.92,SSW,192,4.6,6.9,93,0.00,,,0.00,0.00,VWS V14.01,2013-10-05 07:52:00,
2013-10-05 02:54:00,70.0,67.9,29.93,South,190,6.9,9.2,93,0.00,,,0.00,0.00,VWS V14.01,2013-10-05 07:54:00,
2013-10-05 02:55:00,70.1,68.0,29.93,South,190,3.4,9.2,93,0.00,,,0.00,0.00,VWS V14.01,2013-10-05 07:55:00,
2013-10-05 02:56:00,70.1,68.0,29.93,South,190,3.4,6.9,93,0.00,,,0.00,0.00,VWS V14.01,2013-10-05 07:56:00,
2013-10-05 02:59:00,70.0,67.9,29.92,South,186,1.1,6.9,93,0.00,,,0.00,0.00,VWS V14.01,2013-10-05 07:59:00,
2013-10-05 03:00:00,70.0,67.9,29.92,South,187,11.5,11.5,93,0.00,,,0.00,0.00,VWS V14.01,2013-10-05 08:00:00,
2013-10-05 03:01:00,69.9,67.8,29.92,South,186,3.4,9.2,93,0.00,,,0.00,0.00,VWS V14.01,2013-10-05 08:01:00,
2013-10-05 03:02:00,69.9,67.8,29.92,South,186,3.4,9.2,93,0.00,,,0.00,0.00,VWS V14.01,2013-10-05 08:02:00,
2013-10-05 03:04:00,69.8,67.7,29.92,South,182,1.1,9.2,93,0.00,,,0.00,0.00,VWS V14.01,2013-10-05 08:04:00,
2013-10-05 03:05:00,69.8,67.7,29.92,South,182,1.1,9.2,93,0.00,,,0.00,0.00,VWS V14.01,2013-10-05 08:05:00,
2013-10-05 03:06:00,69.8,67.7,29.92,South,182,4.6,5.8,93,0.00,,,0.00,0.00,VWS V14.01,2013-10-05 08:06:00,
2013-10-05 03:07:00,69.8,67.7,29.92,South,182,2.3,5.8,93,0.00,,,0.00,0.00,VWS V14.01,2013-10-05 08:07:00,
2013-10-05 03:10:00,69.7,67.6,29.92,South,182,5.8,5.8,93,0.00,,,0.00,0.00,VWS V14.01,2013-10-05 08:10:00,
2013-10-05 03:11:00,69.7,67.6,29.92,South,182,3.4,3.4,93,0.00,,,0.00,0.00,VWS V14.01,2013-10-05 08:11:00,
2013-10-05 03:12:00,69.6,67.5,29.92,South,180,4.6,5.8,93,0.00,,,0.00,0.00,VWS V14.01,2013-10-05 08:12:00,
2013-10-05 03:13:00,69.5,67.4,29.92,South,180,4.6,5.8,93,0.00,,,0.00,0.00,VWS V14.01,2013-10-05 08:13:00,
2013-10-05 03:15:00,69.5,67.4,29.92,South,175,2.3,6.9,93,0.00,,,0.00,0.00,VWS V14.01,2013-10-05 08:15:00,
2013-10-05 03:16:00,69.4,67.3,29.92,South,175,2.3,4.6,93,0.00,,,0.00,0.00,VWS V14.01,2013-10-05 08:16:00,
2013-10-05 03:17:00,69.4,67.3,29.92,SSE,161,4.6,6.9,93,0.00,,,0.00,0.00,VWS V14.01,2013-10-05 08:17:00,
2013-10-05 03:19:00,69.4,67.6,29.92,SSE,161,2.3,6.9,94,0.00,,,0.00,0.00,VWS V14.01,2013-10-05 08:19:00,
2013-10-05 03:20:00,69.4,67.6,29.92,South,171,4.6,4.6,94,0.00,,,0.00,0.00,VWS V14.01,2013-10-05 08:20:00,
2013-10-05 03:22:00,69.3,67.2,29.92,South,171,1.1,6.9,93,0.00,,,0.00,0.00,VWS V14.01,2013-10-05 08:22:00,
2013-10-05 03:23:00,69.3,67.2,29.92,South,172,4.6,6.9,93,0.00,,,0.00,0.00,VWS V14.01,2013-10-05 08:23:00,
2013-10-05 03:25:00,69.2,67.1,29.92,South,172,1.1,6.9,93,0.00,,,0.00,0.00,VWS V14.01,2013-10-05 08:25:00,
2013-10-05 03:26:00,69.2,67.1,29.92,South,172,1.1,3.4,93,0.00,,,0.00,0.00,VWS V14.01,2013-10-05 08:26:00,
2013-10-05 03:27:00,69.1,67.0,29.92,South,175,9.2,9.2,93,0.00,,,0.00,0.00,VWS V14.01,2013-10-05 08:27:00,
2013-10-05 03:28:00,69.1,67.0,29.92,South,175,6.9,9.2,93,0.00,,,0.00,0.00,VWS V14.01,2013-10-05 08:28:00,
2013-10-05 03:29:00,69.1,67.0,29.92,South,175,5.8,9.2,93,0.00,,,0.00,0.00,VWS V14.01,2013-10-05 08:29:00,
2013-10-05 03:30:00,69.0,67.2,29.92,South,175,1.1,9.2,94,0.00,,,0.00,0.00,VWS V14.01,2013-10-05 08:30:00,
2013-10-05 03:31:00,69.0,67.2,29.92,South,175,3.4,4.6,94,0.00,,,0.00,0.00,VWS V14.01,2013-10-05 08:31:00,
2013-10-05 03:32:00,68.9,67.1,29.92,South,175,4.6,4.6,94,0.00,,,0.00,0.00,VWS V14.01,2013-10-05 08:32:00,
2013-10-05 03:33:00,68.9,67.1,29.92,South,175,4.6,6.9,94,0.00,,,0.00,0.00,VWS V14.01,2013-10-05 08:33:00,
2013-10-05 03:34:00,68.9,67.1,29.92,South,175,3.4,6.9,94,0.00,,,0.00,0.00,VWS V14.01,2013-10-05 08:34:00,
2013-10-05 03:35:00,68.9,67.1,29.92,South,175,2.3,6.9,94,0.00,,,0.00,0.00,VWS V14.01,2013-10-05 08:35:00,
2013-10-05 03:37:00,68.8,67.0,29.92,South,178,5.8,8.1,94,0.00,,,0.00,0.00,VWS V14.01,2013-10-05 08:37:00,
2013-10-05 03:38:00,68.8,67.0,29.92,South,178,3.4,8.1,94,0.00,,,0.00,0.00,VWS V14.01,2013-10-05 08:38:00,
2013-10-05 03:39:00,68.8,67.0,29.92,South,178,4.6,8.1,94,0.00,,,0.00,0.00,VWS V14.01,2013-10-05 08:39:00,
2013-10-05 03:40:00,68.9,67.1,29.92,South,178,3.4,8.1,94,0.00,,,0.00,0.00,VWS V14.01,2013-10-05 08:40:00,
2013-10-05 03:42:00,68.9,67.1,29.92,South,178,4.6,5.8,94,0.00,,,0.00,0.00,VWS V14.01,2013-10-05 08:42:00,
2013-10-05 03:43:00,68.9,67.1,29.92,SSW,196,3.4,8.1,94,0.00,,,0.00,0.00,VWS V14.01,2013-10-05 08:43:00,
2013-10-05 03:44:00,68.9,67.1,29.92,SSW,196,3.4,8.1,94,0.00,,,0.00,0.00,VWS V14.01,2013-10-05 08:44:00,
2013-10-05 03:45:00,68.9,67.1,29.92,SSW,196,5.8,8.1,94,0.00,,,0.00,0.00,VWS V14.01,2013-10-05 08:45:00,
2013-10-05 03:46:00,68.9,67.1,29.92,SSW,196,2.3,3.4,94,0.00,,,0.00,0.00,VWS V14.01,2013-10-05 08:46:00,
2013-10-05 03:47:00,68.9,67.1,29.92,SSW,196,5.8,8.1,94,0.00,,,0.00,0.00,VWS V14.01,2013-10-05 08:47:00,
2013-10-05 03:49:00,68.9,67.1,29.92,SSW,192,4.6,9.2,94,0.00,,,0.00,0.00,VWS V14.01,2013-10-05 08:49:00,
2013-10-05 03:50:00,68.9,67.1,29.92,SSW,192,2.3,9.2,94,0.00,,,0.00,0.00,VWS V14.01,2013-10-05 08:50:00,
2013-10-05 03:52:00,68.9,67.1,29.92,South,191,5.8,8.1,94,0.00,,,0.00,0.00,VWS V14.01,2013-10-05 08:52:00,
2013-10-05 03:54:00,68.9,67.1,29.92,South,183,4.6,9.2,94,0.00,,,0.00,0.00,VWS V14.01,2013-10-05 08:54:00,
2013-10-05 03:55:00,68.9,67.1,29.92,South,186,10.3,10.3,94,0.00,,,0.00,0.00,VWS V14.01,2013-10-05 08:55:00,
2013-10-05 03:56:00,68.9,67.1,29.92,SSW,192,5.8,10.3,94,0.00,,,0.00,0.00,VWS V14.01,2013-10-05 08:56:00,
2013-10-05 03:57:00,68.9,67.1,29.92,SSW,193,2.3,10.3,94,0.00,,,0.00,0.00,VWS V14.01,2013-10-05 08:57:00,
2013-10-05 04:00:00,69.0,67.2,29.92,South,188,4.6,10.3,94,0.00,,,0.00,0.00,VWS V14.01,2013-10-05 09:00:00,
2013-10-05 04:01:00,69.1,67.3,29.92,South,188,5.8,5.8,94,0.00,,,0.00,0.00,VWS V14.01,2013-10-05 09:01:00,
2013-10-05 04:02:00,69.1,67.3,29.92,South,186,3.4,6.9,94,0.00,,,0.00,0.00,VWS V14.01,2013-10-05 09:02:00,
2013-10-05 04:05:00,69.1,67.3,29.92,South,186,4.6,8.1,94,0.00,,,0.00,0.00,VWS V14.01,2013-10-05 09:05:00,
2013-10-05 04:06:00,69.1,67.3,29.93,South,186,3.4,6.9,94,0.00,,,0.00,0.00,VWS V14.01,2013-10-05 09:06:00,
2013-10-05 04:07:00,69.1,67.3,29.92,South,186,8.1,8.1,94,0.00,,,0.00,0.00,VWS V14.01,2013-10-05 09:07:00,
2013-10-05 04:08:00,69.1,67.3,29.92,South,188,9.2,9.2,94,0.00,,,0.00,0.00,VWS V14.01,2013-10-05 09:08:00,
2013-10-05 04:10:00,69.1,67.3,29.93,SSW,195,2.3,9.2,94,0.00,,,0.00,0.00,VWS V14.01,2013-10-05 09:10:00,
2013-10-05 04:11:00,69.2,67.4,29.92,SSW,195,2.3,3.4,94,0.00,,,0.00,0.00,VWS V14.01,2013-10-05 09:11:00,
2013-10-05 04:12:00,69.1,67.3,29.92,SSW,195,0.0,3.4,94,0.00,,,0.00,0.00,VWS V14.01,2013-10-05 09:12:00,
2013-10-05 04:13:00,69.1,67.3,29.92,SSW,195,0.0,3.4,94,0.00,,,0.00,0.00,VWS V14.01,2013-10-05 09:13:00,
2013-10-05 04:14:00,69.1,67.3,29.92,SSW,195,2.3,5.8,94,0.00,,,0.00,0.00,VWS V14.01,2013-10-05 09:14:00,
2013-10-05 04:15:00,69.1,67.3,29.92,SSW,195,4.6,5.8,94,0.00,,,0.00,0.00,VWS V14.01,2013-10-05 09:15:00,
2013-10-05 04:17:00,69.1,67.3,29.92,SSW,194,5.8,6.9,94,0.00,,,0.00,0.00,VWS V14.01,2013-10-05 09:17:00,
2013-10-05 04:19:00,69.0,67.2,29.92,SSW,194,2.3,6.9,94,0.00,,,0.00,0.00,VWS V14.01,2013-10-05 09:19:00,
2013-10-05 04:20:00,69.0,67.2,29.92,SSW,192,4.6,6.9,94,0.00,,,0.00,0.00,VWS V14.01,2013-10-05 09:20:00,
2013-10-05 04:21:00,69.0,67.2,29.92,SSW,192,4.6,8.1,94,0.00,,,0.00,0.00,VWS V14.01,2013-10-05 09:21:00,
2013-10-05 04:22:00,69.0,67.2,29.92,SSW,192,0.0,8.1,94,0.00,,,0.00,0.00,VWS V14.01,2013-10-05 09:22:00,
2013-10-05 04:23:00,69.0,67.2,29.92,South,190,5.8,8.1,94,0.00,,,0.00,0.00,VWS V14.01,2013-10-05 09:23:00,
2013-10-05 04:24:00,69.0,67.2,29.92,South,190,2.3,8.1,94,0.00,,,0.00,0.00,VWS V14.01,2013-10-05 09:24:00,
2013-10-05 04:25:00,69.0,67.2,29.92,South,190,2.3,8.1,94,0.00,,,0.00,0.00,VWS V14.01,2013-10-05 09:25:00,
2013-10-05 04:27:00,68.9,67.1,29.92,South,190,3.4,3.4,94,0.00,,,0.00,0.00,VWS V14.01,2013-10-05 09:27:00,
2013-10-05 04:28:00,68.9,67.1,29.92,South,190,5.8,5.8,94,0.00,,,0.00,0.00,VWS V14.01,2013-10-05 09:28:00,
2013-10-05 04:29:00,68.9,67.1,29.92,South,190,3.4,5.8,94,0.00,,,0.00,0.00,VWS V14.01,2013-10-05 09:29:00,
2013-10-05 04:30:00,68.8,67.0,29.92,South,190,2.3,5.8,94,0.00,,,0.00,0.00,VWS V14.01,2013-10-05 09:30:00,
2013-10-05 04:32:00,68.8,67.0,29.93,South,188,3.4,9.2,94,0.00,,,0.00,0.00,VWS V14.01,2013-10-05 09:32:00,
2013-10-05 04:34:00,68.8,67.0,29.93,South,188,2.3,9.2,94,0.00,,,0.00,0.00,VWS V14.01,2013-10-05 09:34:00,
2013-10-05 04:35:00,68.8,67.0,29.93,South,188,2.3,9.2,94,0.00,,,0.00,0.00,VWS V14.01,2013-10-05 09:35:00,
2013-10-05 04:36:00,68.8,67.0,29.93,South,188,1.1,4.6,94,0.00,,,0.00,0.00,VWS V14.01,2013-10-05 09:36:00,
2013-10-05 04:39:00,68.7,66.9,29.93,South,188,3.4,5.8,94,0.00,,,0.00,0.00,VWS V14.01,2013-10-05 09:39:00,
2013-10-05 04:40:00,68.7,66.9,29.92,South,188,2.3,5.8,94,0.00,,,0.00,0.00,VWS V14.01,2013-10-05 09:40:00,
2013-10-05 04:44:00,68.8,67.3,29.93,South,187,2.3,8.1,95,0.00,,,0.00,0.00,VWS V14.01,2013-10-05 09:44:00,
2013-10-05 04:45:00,68.8,67.3,29.93,South,187,5.8,8.1,95,0.00,,,0.00,0.00,VWS V14.01,2013-10-05 09:45:00,
2013-10-05 04:47:00,68.8,67.3,29.93,South,187,1.1,3.4,95,0.00,,,0.00,0.00,VWS V14.01,2013-10-05 09:47:00,
2013-10-05 04:49:00,68.8,67.3,29.93,South,187,2.3,5.8,95,0.00,,,0.00,0.00,VWS V14.01,2013-10-05 09:49:00,
2013-10-05 04:50:00,68.8,67.3,29.93,South,187,3.4,3.4,95,0.00,,,0.00,0.00,VWS V14.01,2013-10-05 09:50:00,
2013-10-05 04:51:00,68.8,67.3,29.93,South,187,1.1,3.4,95,0.00,,,0.00,0.00,VWS V14.01,2013-10-05 09:51:00,
2013-10-05 04:52:00,68.8,67.3,29.93,South,187,0.0,3.4,95,0.00,,,0.00,0.00,VWS V14.01,2013-10-05 09:52:00,
2013-10-05 04:53:00,68.8,67.3,29.93,South,187,2.3,4.6,95,0.00,,,0.00,0.00,VWS V14.01,2013-10-05 09:53:00,
2013-10-05 04:55:00,68.8,67.3,29.93,South,187,4.6,5.8,95,0.00,,,0.00,0.00,VWS V14.01,2013-10-05 09:55:00,
2013-10-05 04:56:00,68.8,67.3,29.92,South,187,3.4,3.4,95,0.00,,,0.00,0.00,VWS V14.01,2013-10-05 09:56:00,
2013-10-05 04:57:00,68.8,67.3,29.93,South,187,5.8,6.9,95,0.00,,,0.00,0.00,VWS V14.01,2013-10-05 09:57:00,
2013-10-05 04:58:00,68.8,67.3,29.93,South,187,1.1,6.9,95,0.00,,,0.00,0.00,VWS V14.01,2013-10-05 09:58:00,
2013-10-05 05:00:00,68.8,67.3,29.92,South,187,3.5,6.9,95,0.00,,,0.00,0.00,VWS V14.01,2013-10-05 10:00:00,
2013-10-05 05:01:00,68.7,67.2,29.92,South,187,2.3,4.6,95,0.00,,,0.00,0.00,VWS V14.01,2013-10-05 10:01:00,
2013-10-05 05:02:00,68.7,66.9,29.92,South,187,0.0,4.6,94,0.00,,,0.00,0.00,VWS V14.01,2013-10-05 10:02:00,
2013-10-05 05:03:00,68.7,66.9,29.92,South,187,5.8,5.8,94,0.00,,,0.00,0.00,VWS V14.01,2013-10-05 10:03:00,
2013-10-05 05:05:00,68.7,66.9,29.92,South,186,3.4,8.1,94,0.00,,,0.00,0.00,VWS V14.01,2013-10-05 10:05:00,
2013-10-05 05:06:00,68.7,66.9,29.92,South,186,0.0,5.8,94,0.00,,,0.00,0.00,VWS V14.01,2013-10-05 10:06:00,
2013-10-05 05:07:00,68.6,66.8,29.92,South,186,1.1,5.8,94,0.00,,,0.00,0.00,VWS V14.01,2013-10-05 10:07:00,
2013-10-05 05:08:00,68.6,66.8,29.92,South,186,5.8,6.9,94,0.00,,,0.00,0.00,VWS V14.01,2013-10-05 10:08:00,
2013-10-05 05:10:00,68.5,66.7,29.92,South,186,0.0,6.9,94,0.00,,,0.00,0.00,VWS V14.01,2013-10-05 10:10:00,
2013-10-05 05:11:00,68.5,67.0,29.92,South,186,3.4,3.4,95,0.00,,,0.00,0.00,VWS V14.01,2013-10-05 10:11:00,
2013-10-05 05:13:00,68.5,66.7,29.93,South,186,3.4,4.6,94,0.00,,,0.00,0.00,VWS V14.01,2013-10-05 10:13:00,
2013-10-05 05:14:00,68.5,67.0,29.93,South,186,1.1,4.6,95,0.00,,,0.00,0.00,VWS V14.01,2013-10-05 10:14:00,
2013-10-05 05:15:00,68.5,67.0,29.93,South,186,3.4,4.6,95,0.00,,,0.00,0.00,VWS V14.01,2013-10-05 10:15:00,
2013-10-05 05:17:00,68.5,67.0,29.93,South,186,1.1,3.4,95,0.00,,,0.00,0.00,VWS V14.01,2013-10-05 10:17:00,
2013-10-05 05:19:00,68.4,66.9,29.92,South,186,0.0,6.9,95,0.00,,,0.00,0.00,VWS V14.01,2013-10-05 10:19:00,
2013-10-05 05:20:00,68.4,66.9,29.92,South,186,2.3,6.9,95,0.00,,,0.00,0.00,VWS V14.01,2013-10-05 10:20:00,
2013-10-05 05:21:00,68.4,66.9,29.93,South,186,3.4,3.4,95,0.00,,,0.00,0.00,VWS V14.01,2013-10-05 10:21:00,
2013-10-05 05:22:00,68.3,66.8,29.93,South,186,0.0,3.4,95,0.00,,,0.00,0.00,VWS V14.01,2013-10-05 10:22:00,
2013-10-05 05:25:00,68.3,66.8,29.92,South,185,1.1,6.9,95,0.00,,,0.00,0.00,VWS V14.01,2013-10-05 10:25:00,
2013-10-05 05:26:00,68.3,66.8,29.92,South,185,1.1,4.6,95,0.00,,,0.00,0.00,VWS V14.01,2013-10-05 10:26:00,
2013-10-05 05:27:00,68.3,66.8,29.92,South,185,2.3,4.6,95,0.00,,,0.00,0.00,VWS V14.01,2013-10-05 10:27:00,
2013-10-05 05:28:00,68.3,66.8,29.92,South,185,0.0,5.8,95,0.00,,,0.00,0.00,VWS V14.01,2013-10-05 10:28:00,
2013-10-05 05:30:00,68.3,66.8,29.92,South,185,5.8,5.8,95,0.00,,,0.00,0.00,VWS V14.01,2013-10-05 10:30:00,
2013-10-05 05:31:00,68.3,66.8,29.92,South,185,3.4,4.6,95,0.00,,,0.00,0.00,VWS V14.01,2013-10-05 10:31:00,
2013-10-05 05:33:00,68.3,66.8,29.92,South,185,2.3,4.6,95,0.00,,,0.00,0.00,VWS V14.01,2013-10-05 10:33:00,
2013-10-05 05:34:00,68.2,66.7,29.93,South,185,2.3,4.6,95,0.00,,,0.00,0.00,VWS V14.01,2013-10-05 10:34:00,
2013-10-05 05:35:00,68.2,66.7,29.92,South,185,5.8,5.8,95,0.00,,,0.00,0.00,VWS V14.01,2013-10-05 10:35:00,
2013-10-05 05:36:00,68.2,66.7,29.93,South,185,1.1,5.8,95,0.00,,,0.00,0.00,VWS V14.01,2013-10-05 10:36:00,
2013-10-05 05:38:00,68.3,66.8,29.92,South,185,0.0,5.8,95,0.00,,,0.00,0.00,VWS V14.01,2013-10-05 10:38:00,
2013-10-05 05:40:00,68.2,66.7,29.92,South,185,4.6,6.9,95,0.00,,,0.00,0.00,VWS V14.01,2013-10-05 10:40:00,
2013-10-05 05:41:00,68.2,66.7,29.92,South,185,3.4,5.8,95,0.00,,,0.00,0.00,VWS V14.01,2013-10-05 10:41:00,
2013-10-05 05:42:00,68.2,66.7,29.92,South,185,4.6,5.8,95,0.00,,,0.00,0.00,VWS V14.01,2013-10-05 10:42:00,
2013-10-05 05:44:00,68.1,66.6,29.92,South,185,4.6,5.8,95,0.00,,,0.00,0.00,VWS V14.01,2013-10-05 10:44:00,
2013-10-05 05:45:00,68.2,66.7,29.92,South,185,3.4,3.4,95,0.00,,,0.00,0.00,VWS V14.01,2013-10-05 10:45:00,
2013-10-05 05:46:00,68.2,66.7,29.92,South,185,2.3,4.6,95,0.00,,,0.00,0.00,VWS V14.01,2013-10-05 10:46:00,
2013-10-05 05:47:00,68.2,66.7,29.92,South,185,3.4,4.6,95,0.00,,,0.00,0.00,VWS V14.01,2013-10-05 10:47:00,
2013-10-05 05:50:00,68.2,66.7,29.92,South,185,3.4,6.9,95,0.00,,,0.00,0.00,VWS V14.01,2013-10-05 10:50:00,
2013-10-05 05:52:00,68.1,66.6,29.92,South,185,3.4,6.9,95,0.00,,,0.00,0.00,VWS V14.01,2013-10-05 10:52:00,
2013-10-05 05:53:00,68.1,66.6,29.92,South,185,3.4,6.9,95,0.00,,,0.00,0.00,VWS V14.01,2013-10-05 10:53:00,
2013-10-05 05:55:00,68.1,66.6,29.92,South,185,3.5,9.2,95,0.00,,,0.00,0.00,VWS V14.01,2013-10-05 10:55:00,
2013-10-05 05:57:00,68.1,66.6,29.92,South,185,2.3,6.9,95,0.00,,,0.00,0.00,VWS V14.01,2013-10-05 10:57:00,
2013-10-05 05:58:00,68.1,66.6,29.92,South,185,2.3,6.9,95,0.00,,,0.00,0.00,VWS V14.01,2013-10-05 10:58:00,
2013-10-05 05:59:00,68.1,66.6,29.92,South,185,1.1,6.9,95,0.00,,,0.00,0.00,VWS V14.01,2013-10-05 10:59:00,
2013-10-05 06:00:00,68.1,66.6,29.92,South,185,3.4,6.9,95,0.00,,,0.00,0.00,VWS V14.01,2013-10-05 11:00:00,
2013-10-05 06:03:00,68.1,66.6,29.92,South,184,2.3,6.9,95,0.00,,,0.00,0.00,VWS V14.01,2013-10-05 11:03:00,
2013-10-05 06:04:00,68.2,66.7,29.92,South,184,4.6,6.9,95,0.00,,,0.00,0.00,VWS V14.01,2013-10-05 11:04:00,
2013-10-05 06:05:00,68.2,66.7,29.92,South,184,2.3,6.9,95,0.00,,,0.00,0.00,VWS V14.01,2013-10-05 11:05:00,
2013-10-05 06:06:00,68.2,66.7,29.92,South,184,2.3,3.4,95,0.00,,,0.00,0.00,VWS V14.01,2013-10-05 11:06:00,
2013-10-05 06:07:00,68.2,67.0,29.92,South,184,1.1,5.8,96,0.00,,,0.00,0.00,VWS V14.01,2013-10-05 11:07:00,
2013-10-05 06:09:00,68.2,67.0,29.92,South,184,2.3,5.8,96,0.00,,,0.00,0.00,VWS V14.01,2013-10-05 11:09:00,
2013-10-05 06:10:00,68.2,67.0,29.92,South,184,3.4,5.8,96,0.00,,,0.00,0.00,VWS V14.01,2013-10-05 11:10:00,
2013-10-05 06:11:00,68.2,67.0,29.92,South,184,1.1,2.3,96,0.00,,,0.00,0.00,VWS V14.01,2013-10-05 11:11:00,
2013-10-05 06:13:00,68.1,66.6,29.92,South,184,4.6,8.1,95,0.00,,,0.00,0.00,VWS V14.01,2013-10-05 11:13:00,
2013-10-05 06:15:00,68.1,66.6,29.92,South,184,0.0,8.1,95,0.00,,,0.00,0.00,VWS V14.01,2013-10-05 11:15:00,
2013-10-05 06:16:00,68.1,66.6,29.92,South,184,3.4,5.8,95,0.00,,,0.00,0.00,VWS V14.01,2013-10-05 11:16:00,
2013-10-05 06:20:00,68.1,66.6,29.92,South,184,2.3,5.8,95,0.00,,,0.00,0.00,VWS V14.01,2013-10-05 11:20:00,
2013-10-05 06:21:00,68.0,66.5,29.92,South,184,3.4,5.8,95,0.00,,,0.00,0.00,VWS V14.01,2013-10-05 11:21:00,
2013-10-05 06:22:00,68.0,66.5,29.92,South,184,2.3,5.8,95,0.00,,,0.00,0.00,VWS V14.01,2013-10-05 11:22:00,
2013-10-05 06:25:00,68.0,66.5,29.92,South,184,2.3,2.3,95,0.00,,,0.00,0.00,VWS V14.01,2013-10-05 11:25:00,
2013-10-05 06:26:00,68.0,66.5,29.92,South,184,3.4,4.6,95,0.00,,,0.00,0.00,VWS V14.01,2013-10-05 11:26:00,
2013-10-05 06:27:00,68.0,66.5,29.92,South,184,4.6,4.6,95,0.00,,,0.00,0.00,VWS V14.01,2013-10-05 11:27:00,
2013-10-05 06:28:00,68.0,66.5,29.92,South,184,1.1,4.6,95,0.00,,,0.00,0.00,VWS V14.01,2013-10-05 11:28:00,
2013-10-05 06:29:00,68.0,66.5,29.92,South,184,0.0,4.6,95,0.00,,,0.00,0.00,VWS V14.01,2013-10-05 11:29:00,
2013-10-05 06:30:00,68.0,66.5,29.92,South,184,0.0,4.6,95,0.00,,,0.00,0.00,VWS V14.01,2013-10-05 11:30:00,
2013-10-05 06:31:00,68.0,66.5,29.92,South,184,3.4,3.4,95,0.00,,,0.00,0.00,VWS V14.01,2013-10-05 11:31:00,
2013-10-05 06:32:00,67.9,66.4,29.92,South,184,2.3,3.4,95,0.00,,,0.00,0.00,VWS V14.01,2013-10-05 11:32:00,
2013-10-05 06:34:00,67.9,66.4,29.92,South,184,0.0,3.4,95,0.00,,,0.00,0.00,VWS V14.01,2013-10-05 11:34:00,
2013-10-05 06:35:00,67.9,66.4,29.92,South,184,2.3,3.5,95,0.00,,,0.00,0.00,VWS V14.01,2013-10-05 11:35:00,
2013-10-05 06:37:00,67.9,66.4,29.92,South,184,4.6,4.6,95,0.00,,,0.00,0.00,VWS V14.01,2013-10-05 11:37:00,
2013-10-05 06:40:00,67.8,66.3,29.91,South,184,3.4,4.6,95,0.00,,,0.00,0.00,VWS V14.01,2013-10-05 11:40:00,
2013-10-05 06:41:00,67.7,66.2,29.91,South,184,3.4,3.4,95,0.00,,,0.00,0.00,VWS V14.01,2013-10-05 11:41:00,
2013-10-05 06:42:00,67.7,66.5,29.91,South,184,1.1,5.8,96,0.00,,,0.00,0.00,VWS V14.01,2013-10-05 11:42:00,
2013-10-05 06:43:00,67.7,66.5,29.91,South,184,2.3,5.8,96,0.00,,,0.00,0.00,VWS V14.01,2013-10-05 11:43:00,
2013-10-05 06:45:00,67.7,66.5,29.91,South,184,1.1,5.8,96,0.00,,,0.00,0.00,VWS V14.01,2013-10-05 11:45:00,
2013-10-05 06:46:00,67.7,66.5,29.91,South,184,3.4,3.4,96,0.00,,,0.00,0.00,VWS V14.01,2013-10-05 11:46:00,
2013-10-05 06:48:00,67.7,66.5,29.91,South,184,3.4,5.8,96,0.00,,,0.00,0.00,VWS V14.01,2013-10-05 11:48:00,
2013-10-05 06:50:00,67.7,66.5,29.91,South,184,0.0,5.8,96,0.00,,,0.00,0.00,VWS V14.01,2013-10-05 11:50:00,
2013-10-05 06:51:00,67.7,66.5,29.91,South,184,0.0,3.4,96,0.00,,,0.00,0.00,VWS V14.01,2013-10-05 11:51:00,
2013-10-05 06:53:00,67.7,66.5,29.91,South,184,2.3,4.6,96,0.00,,,0.00,0.00,VWS V14.01,2013-10-05 11:53:00,
2013-10-05 06:54:00,67.7,66.5,29.91,South,184,1.1,4.6,96,0.00,,,0.00,0.00,VWS V14.01,2013-10-05 11:54:00,
2013-10-05 06:55:00,67.7,66.5,29.91,South,184,1.1,1.1,96,0.00,,,0.00,0.00,VWS V14.01,2013-10-05 11:55:00,
2013-10-05 06:56:00,67.7,66.5,29.91,South,184,1.1,3.4,96,0.00,,,0.00,0.00,VWS V14.01,2013-10-05 11:56:00,
2013-10-05 06:57:00,67.7,66.5,29.91,South,184,0.0,3.4,96,0.00,,,0.00,0.00,VWS V14.01,2013-10-05 11:57:00,
2013-10-05 06:58:00,67.7,66.5,29.91,South,184,3.4,3.4,96,0.00,,,0.00,0.00,VWS V14.01,2013-10-05 11:58:00,
2013-10-05 06:59:00,67.7,66.5,29.91,South,184,3.4,3.4,96,0.00,,,0.00,5.00,VWS V14.01,2013-10-05 11:59:00,
2013-10-05 07:00:00,67.6,66.4,29.91,South,184,3.5,3.5,96,0.00,,,0.00,5.00,VWS V14.01,2013-10-05 12:00:00,
2013-10-05 07:02:00,67.6,66.4,29.91,South,184,2.3,5.8,96,0.00,,,0.00,7.00,VWS V14.01,2013-10-05 12:02:00,
2013-10-05 07:04:00,67.6,66.4,29.91,South,184,2.3,5.8,96,0.00,,,0.00,9.00,VWS V14.01,2013-10-05 12:04:00,
2013-10-05 07:05:00,67.6,66.4,29.91,South,184,1.1,5.8,96,0.00,,,0.00,9.00,VWS V14.01,2013-10-05 12:05:00,
2013-10-05 07:07:00,67.6,66.4,29.91,South,184,3.4,5.8,96,0.00,,,0.00,11.00,VWS V14.01,2013-10-05 12:07:00,
2013-10-05 07:08:00,67.6,66.4,29.91,South,184,1.1,5.8,96,0.00,,,0.00,12.00,VWS V14.01,2013-10-05 12:08:00,
2013-10-05 07:09:00,67.6,66.4,29.91,South,184,3.4,5.8,96,0.00,,,0.00,12.00,VWS V14.01,2013-10-05 12:09:00,
2013-10-05 07:10:00,67.6,66.4,29.91,South,183,6.9,6.9,96,0.00,,,0.00,14.00,VWS V14.01,2013-10-05 12:10:00,
2013-10-05 07:11:00,67.6,66.1,29.91,South,183,4.6,6.9,95,0.00,,,0.00,14.00,VWS V14.01,2013-10-05 12:11:00,
2013-10-05 07:13:00,67.5,66.0,29.91,South,183,0.0,6.9,95,0.00,,,0.00,18.00,VWS V14.01,2013-10-05 12:13:00,
2013-10-05 07:14:00,67.5,66.0,29.91,South,183,5.8,6.9,95,0.00,,,0.00,19.00,VWS V14.01,2013-10-05 12:14:00,
2013-10-05 07:15:00,67.5,66.0,29.91,South,183,2.3,6.9,95,0.00,,,0.00,19.00,VWS V14.01,2013-10-05 12:15:00,
2013-10-05 07:16:00,67.5,66.0,29.91,South,183,3.4,6.9,95,0.00,,,0.00,21.00,VWS V14.01,2013-10-05 12:16:00,
2013-10-05 07:17:00,67.6,66.1,29.91,South,183,4.6,6.9,95,0.00,,,0.00,21.00,VWS V14.01,2013-10-05 12:17:00,
2013-10-05 07:20:00,67.6,66.4,29.91,South,173,0.0,8.1,96,0.00,,,0.00,25.00,VWS V14.01,2013-10-05 12:20:00,
2013-10-05 07:21:00,67.5,66.3,29.91,South,173,3.4,3.4,96,0.00,,,0.00,25.00,VWS V14.01,2013-10-05 12:21:00,
2013-10-05 07:22:00,67.6,66.4,29.91,South,172,3.4,5.8,96,0.00,,,0.00,25.00,VWS V14.01,2013-10-05 12:22:00,
2013-10-05 07:24:00,67.6,66.4,29.91,South,173,2.3,5.8,96,0.00,,,0.00,26.00,VWS V14.01,2013-10-05 12:24:00,
2013-10-05 07:25:00,67.6,66.4,29.91,South,172,4.6,5.8,96,0.00,,,0.00,26.00,VWS V14.01,2013-10-05 12:25:00,
2013-10-05 07:28:00,67.7,66.5,29.91,South,172,3.4,5.8,96,0.00,,,0.00,30.00,VWS V14.01,2013-10-05 12:28:00,
2013-10-05 07:29:00,67.7,66.5,29.91,South,172,2.3,5.8,96,0.00,,,0.00,28.00,VWS V14.01,2013-10-05 12:29:00,
2013-10-05 07:30:00,67.7,66.5,29.91,South,172,3.4,8.1,96,0.00,,,0.00,32.00,VWS V14.01,2013-10-05 12:30:00,
2013-10-05 07:31:00,67.7,66.5,29.91,South,172,1.1,4.6,96,0.00,,,0.00,33.00,VWS V14.01,2013-10-05 12:31:00,
2013-10-05 07:33:00,67.9,66.7,29.91,South,172,4.6,8.1,96,0.00,,,0.00,26.00,VWS V14.01,2013-10-05 12:33:00,
2013-10-05 07:34:00,67.9,66.7,29.91,South,172,4.6,8.1,96,0.00,,,0.00,26.00,VWS V14.01,2013-10-05 12:34:00,
2013-10-05 07:35:00,67.9,66.7,29.91,South,172,2.3,8.1,96,0.00,,,0.00,26.00,VWS V14.01,2013-10-05 12:35:00,
2013-10-05 07:36:00,67.9,66.7,29.92,South,172,2.3,4.6,96,0.00,,,0.00,28.00,VWS V14.01,2013-10-05 12:36:00,
2013-10-05 07:39:00,68.0,66.8,29.92,South,169,4.6,8.1,96,0.00,,,0.00,40.00,VWS V14.01,2013-10-05 12:39:00,
2013-10-05 07:40:00,68.0,66.8,29.91,South,169,2.3,8.1,96,0.00,,,0.00,47.00,VWS V14.01,2013-10-05 12:40:00,
2013-10-05 07:41:00,68.0,66.8,29.91,South,169,2.3,5.8,96,0.00,,,0.00,46.00,VWS V14.01,2013-10-05 12:41:00,
2013-10-05 07:42:00,68.0,66.8,29.91,South,169,5.8,5.8,96,0.00,,,0.00,46.00,VWS V14.01,2013-10-05 12:42:00,
2013-10-05 07:45:00,68.3,67.1,29.91,South,169,4.6,5.8,96,0.00,,,0.00,46.00,VWS V14.01,2013-10-05 12:45:00,
2013-10-05 07:47:00,68.4,67.2,29.91,South,169,1.1,3.4,96,0.00,,,0.00,60.00,VWS V14.01,2013-10-05 12:47:00,
2013-10-05 07:50:00,68.6,67.4,29.91,South,169,2.3,3.4,96,0.00,,,0.00,69.00,VWS V14.01,2013-10-05 12:50:00,
2013-10-05 07:51:00,68.6,67.4,29.91,South,169,3.4,3.4,96,0.00,,,0.00,69.00,VWS V14.01,2013-10-05 12:51:00,
2013-10-05 07:52:00,68.7,67.5,29.91,South,169,0.0,3.4,96,0.00,,,0.00,104.00,VWS V14.01,2013-10-05 12:52:00,
2013-10-05 07:53:00,68.7,67.5,29.91,South,169,2.3,3.4,96,0.00,,,0.00,104.00,VWS V14.01,2013-10-05 12:53:00,
2013-10-05 07:55:00,68.8,67.6,29.92,South,169,3.5,3.5,96,0.00,,,0.00,40.00,VWS V14.01,2013-10-05 12:55:00,
2013-10-05 07:56:00,68.8,67.6,29.91,SSE,167,6.9,6.9,96,0.00,,,0.00,47.00,VWS V14.01,2013-10-05 12:56:00,
2013-10-05 07:58:00,68.9,67.7,29.92,SSE,165,2.3,6.9,96,0.00,,,0.00,104.00,VWS V14.01,2013-10-05 12:58:00,
2013-10-05 08:00:00,69.0,67.8,29.92,SSE,165,3.4,6.9,96,0.00,,,0.00,47.00,VWS V14.01,2013-10-05 13:00:00,
2013-10-05 08:01:00,69.0,67.8,29.92,SSE,165,0.0,5.8,96,0.00,,,0.00,60.00,VWS V14.01,2013-10-05 13:01:00,
2013-10-05 08:02:00,69.0,67.8,29.91,SSE,165,5.8,5.8,96,0.00,,,0.00,86.00,VWS V14.01,2013-10-05 13:02:00,
2013-10-05 08:04:00,69.1,67.9,29.91,SSE,165,2.3,5.8,96,0.00,,,0.00,40.00,VWS V14.01,2013-10-05 13:04:00,
2013-10-05 08:05:00,69.2,68.0,29.91,SSE,165,0.0,5.8,96,0.00,,,0.00,46.00,VWS V14.01,2013-10-05 13:05:00,
2013-10-05 08:06:00,69.2,68.0,29.91,SSE,163,3.4,6.9,96,0.00,,,0.00,86.00,VWS V14.01,2013-10-05 13:06:00,
2013-10-05 08:07:00,69.2,68.0,29.91,SSE,163,1.1,6.9,96,0.00,,,0.00,86.00,VWS V14.01,2013-10-05 13:07:00,
2013-10-05 08:09:00,69.4,68.2,29.91,SSE,163,0.0,6.9,96,0.00,,,0.00,51.00,VWS V14.01,2013-10-05 13:09:00,
2013-10-05 08:10:00,69.4,68.2,29.91,SSE,163,4.6,6.9,96,0.00,,,0.00,32.00,VWS V14.01,2013-10-05 13:10:00,
2013-10-05 08:12:00,69.4,68.2,29.91,SSE,167,1.1,8.1,96,0.00,,,0.00,44.00,VWS V14.01,2013-10-05 13:12:00,
2013-10-05 08:13:00,69.4,68.2,29.91,SSE,167,4.6,8.1,96,0.00,,,0.00,69.00,VWS V14.01,2013-10-05 13:13:00,
2013-10-05 08:14:00,69.4,68.2,29.91,SSE,167,5.8,8.1,96,0.00,,,0.00,69.00,VWS V14.01,2013-10-05 13:14:00,
2013-10-05 08:15:00,69.5,68.3,29.91,SSE,166,5.8,8.1,96,0.00,,,0.00,65.00,VWS V14.01,2013-10-05 13:15:00,
2013-10-05 08:18:00,69.5,68.3,29.91,SSE,166,3.4,5.8,96,0.00,,,0.00,60.00,VWS V14.01,2013-10-05 13:18:00,
2013-10-05 08:19:00,69.6,68.4,29.92,SSE,166,0.0,5.8,96,0.00,,,0.00,74.00,VWS V14.01,2013-10-05 13:19:00,
2013-10-05 08:20:00,69.6,68.4,29.91,SSE,166,2.3,5.8,96,0.00,,,0.00,116.00,VWS V14.01,2013-10-05 13:20:00,
2013-10-05 08:23:00,69.8,68.6,29.91,SSE,166,5.8,5.8,96,0.00,,,0.00,90.00,VWS V14.01,2013-10-05 13:23:00,
2013-10-05 08:24:00,69.8,68.6,29.91,SSE,166,3.4,5.8,96,0.00,,,0.00,77.00,VWS V14.01,2013-10-05 13:24:00,
2013-10-05 08:25:00,69.9,68.7,29.91,SSE,166,3.4,4.6,96,0.00,,,0.00,58.00,VWS V14.01,2013-10-05 13:25:00,
2013-10-05 08:26:00,69.9,68.7,29.91,SSE,166,1.1,4.6,96,0.00,,,0.00,58.00,VWS V14.01,2013-10-05 13:26:00,
2013-10-05 08:27:00,69.9,68.7,29.91,SSE,166,2.3,4.6,96,0.00,,,0.00,70.00,VWS V14.01,2013-10-05 13:27:00,
2013-10-05 08:29:00,70.0,68.8,29.91,SSE,166,4.6,5.8,96,0.00,,,0.00,95.00,VWS V14.01,2013-10-05 13:29:00,
2013-10-05 08:30:00,70.1,68.9,29.91,SSE,166,6.9,6.9,96,0.00,,,0.00,118.00,VWS V14.01,2013-10-05 13:30:00,
2013-10-05 08:31:00,70.2,69.0,29.91,SSE,166,4.6,5.8,96,0.00,,,0.00,97.00,VWS V14.01,2013-10-05 13:31:00,
2013-10-05 08:32:00,70.2,69.0,29.91,SSE,166,2.3,5.8,96,0.00,,,0.00,97.00,VWS V14.01,2013-10-05 13:32:00,
2013-10-05 08:35:00,70.4,69.2,29.91,SSE,166,0.0,6.9,96,0.00,,,0.00,98.00,VWS V14.01,2013-10-05 13:35:00,
2013-10-05 08:36:00,70.4,69.2,29.91,SSE,166,2.3,5.8,96,0.00,,,0.00,63.00,VWS V14.01,2013-10-05 13:36:00,
2013-10-05 08:37:00,70.5,69.3,29.91,SSE,166,4.6,5.8,96,0.00,,,0.00,74.00,VWS V14.01,2013-10-05 13:37:00,
2013-10-05 08:39:00,70.6,69.1,29.91,South,169,5.8,11.5,95,0.00,,,0.00,90.00,VWS V14.01,2013-10-05 13:39:00,
2013-10-05 08:40:00,70.6,69.1,29.91,South,169,3.4,3.4,95,0.00,,,0.00,77.00,VWS V14.01,2013-10-05 13:40:00,
2013-10-05 08:42:00,70.7,69.2,29.91,South,169,5.8,5.8,95,0.00,,,0.00,69.00,VWS V14.01,2013-10-05 13:42:00,
2013-10-05 08:43:00,70.7,69.2,29.91,South,169,9.2,9.2,95,0.00,,,0.00,56.00,VWS V14.01,2013-10-05 13:43:00,
2013-10-05 08:44:00,70.7,69.2,29.91,South,179,5.8,10.3,95,0.00,,,0.00,62.00,VWS V14.01,2013-10-05 13:44:00,
2013-10-05 08:45:00,70.7,69.2,29.91,South,174,4.6,10.4,95,0.00,,,0.00,53.00,VWS V14.01,2013-10-05 13:45:00,
2013-10-05 08:46:00,70.7,69.2,29.91,South,174,2.3,5.8,95,0.00,,,0.00,47.00,VWS V14.01,2013-10-05 13:46:00,
2013-10-05 08:48:00,70.7,69.2,29.92,SSE,155,5.8,9.2,95,0.00,,,0.00,60.00,VWS V14.01,2013-10-05 13:48:00,
2013-10-05 08:49:00,70.7,69.2,29.91,South,186,5.8,10.3,95,0.00,,,0.00,62.00,VWS V14.01,2013-10-05 13:49:00,
2013-10-05 08:50:00,70.7,69.2,29.91,SSE,159,5.8,10.3,95,0.00,,,0.00,67.00,VWS V14.01,2013-10-05 13:50:00,
2013-10-05 08:52:00,70.8,69.3,29.91,SSE,167,4.6,6.9,95,0.00,,,0.00,67.00,VWS V14.01,2013-10-05 13:52:00,
2013-10-05 08:53:00,70.8,69.3,29.92,South,169,4.6,8.1,95,0.00,,,0.00,72.00,VWS V14.01,2013-10-05 13:53:00,
2013-10-05 08:54:00,70.8,69.3,29.92,South,170,3.4,8.1,95,0.00,,,0.00,81.00,VWS V14.01,2013-10-05 13:54:00,
2013-10-05 08:55:00,70.8,69.3,29.91,South,189,5.8,8.1,95,0.00,,,0.00,69.00,VWS V14.01,2013-10-05 13:55:00,
2013-10-05 08:56:00,70.8,69.3,29.92,South,182,9.2,9.2,95,0.00,,,0.00,69.00,VWS V14.01,2013-10-05 13:56:00,
2013-10-05 08:57:00,70.8,69.3,29.92,South,175,4.6,12.6,95,0.00,,,0.00,67.00,VWS V14.01,2013-10-05 13:57:00,
2013-10-05 08:58:00,70.8,69.3,29.92,SSW,199,5.8,12.6,95,0.00,,,0.00,74.00,VWS V14.01,2013-10-05 13:58:00,
2013-10-05 08:59:00,70.9,69.4,29.92,SSW,199,1.1,12.6,95,0.00,,,0.00,56.00,VWS V14.01,2013-10-05 13:59:00,
2013-10-05 09:00:00,70.9,69.4,29.92,SSW,200,5.8,12.6,95,0.00,,,0.00,56.00,VWS V14.01,2013-10-05 14:00:00,
2013-10-05 09:02:00,70.9,69.4,29.92,SSW,198,3.4,5.8,95,0.00,,,0.00,65.00,VWS V14.01,2013-10-05 14:02:00,
2013-10-05 09:03:00,70.9,69.4,29.92,SSW,198,1.1,5.8,95,0.00,,,0.00,74.00,VWS V14.01,2013-10-05 14:03:00,
2013-10-05 09:04:00,70.9,69.4,29.92,SSW,198,3.4,5.8,95,0.00,,,0.00,90.00,VWS V14.01,2013-10-05 14:04:00,
2013-10-05 09:05:00,71.0,69.5,29.92,SSW,196,8.1,8.1,95,0.00,,,0.00,93.00,VWS V14.01,2013-10-05 14:05:00,
2013-10-05 09:08:00,71.0,69.2,29.92,South,188,4.6,8.1,94,0.00,,,0.00,63.00,VWS V14.01,2013-10-05 14:08:00,
2013-10-05 09:09:00,71.0,69.2,29.92,South,186,4.6,8.1,94,0.00,,,0.00,63.00,VWS V14.01,2013-10-05 14:09:00,
2013-10-05 09:10:00,71.0,69.2,29.92,SSW,194,4.6,4.6,94,0.00,,,0.00,67.00,VWS V14.01,2013-10-05 14:10:00,
2013-10-05 09:13:00,71.0,69.2,29.92,SSW,202,1.1,6.9,94,0.00,,,0.00,62.00,VWS V14.01,2013-10-05 14:13:00,
2013-10-05 09:14:00,71.0,69.2,29.92,SSW,202,0.0,6.9,94,0.00,,,0.00,67.00,VWS V14.01,2013-10-05 14:14:00,
2013-10-05 09:15:00,71.0,69.2,29.92,SSW,202,1.1,6.9,94,0.00,,,0.00,67.00,VWS V14.01,2013-10-05 14:15:00,
2013-10-05 09:16:00,71.1,69.3,29.92,SSW,200,4.6,4.6,94,0.00,,,0.00,58.00,VWS V14.01,2013-10-05 14:16:00,
2013-10-05 09:19:00,71.1,69.3,29.92,SSW,200,4.6,5.8,94,0.00,,,0.00,53.00,VWS V14.01,2013-10-05 14:19:00,
2013-10-05 09:20:00,71.1,69.3,29.92,SSW,198,6.9,6.9,94,0.00,,,0.00,53.00,VWS V14.01,2013-10-05 14:20:00,
2013-10-05 09:21:00,71.1,69.3,29.92,SSW,198,4.6,8.1,94,0.00,,,0.00,49.00,VWS V14.01,2013-10-05 14:21:00,
2013-10-05 09:22:00,71.1,69.3,29.92,SSW,198,0.0,8.1,94,0.00,,,0.00,49.00,VWS V14.01,2013-10-05 14:22:00,
2013-10-05 09:23:00,71.1,69.3,29.92,South,186,2.3,9.2,94,0.00,,,0.00,53.00,VWS V14.01,2013-10-05 14:23:00,
2013-10-05 09:25:00,71.1,69.3,29.92,South,186,3.4,9.2,94,0.00,,,0.00,72.00,VWS V14.01,2013-10-05 14:25:00,
2013-10-05 09:27:00,71.1,69.3,29.92,South,186,2.3,5.8,94,0.00,,,0.00,79.00,VWS V14.01,2013-10-05 14:27:00,
2013-10-05 09:28:00,71.1,69.3,29.92,South,186,3.4,6.9,94,0.00,,,0.00,70.00,VWS V14.01,2013-10-05 14:28:00,
2013-10-05 09:29:00,71.1,69.3,29.92,South,186,1.1,6.9,94,0.00,,,0.00,77.00,VWS V14.01,2013-10-05 14:29:00,
2013-10-05 09:30:00,71.1,69.3,29.92,South,186,5.8,6.9,94,0.00,,,0.00,90.00,VWS V14.01,2013-10-05 14:30:00,
2013-10-05 09:31:00,71.1,69.3,29.92,South,186,5.8,6.9,94,0.00,,,0.00,90.00,VWS V14.01,2013-10-05 14:31:00,
2013-10-05 09:33:00,71.2,69.4,29.92,South,186,5.8,6.9,94,0.00,,,0.00,98.00,VWS V14.01,2013-10-05 14:33:00,
2013-10-05 09:34:00,71.2,69.4,29.92,South,187,0.0,6.9,94,0.00,,,0.00,105.00,VWS V14.01,2013-10-05 14:34:00,
2013-10-05 09:35:00,71.3,69.5,29.92,South,187,2.3,6.9,94,0.00,,,0.00,100.00,VWS V14.01,2013-10-05 14:35:00,
2013-10-05 09:36:00,71.3,69.5,29.92,South,187,2.3,2.3,94,0.00,,,0.00,95.00,VWS V14.01,2013-10-05 14:36:00,
2013-10-05 09:37:00,71.4,69.6,29.92,South,187,3.4,5.8,94,0.00,,,0.00,97.00,VWS V14.01,2013-10-05 14:37:00,
2013-10-05 09:38:00,71.4,69.6,29.92,South,187,3.4,5.8,94,0.00,,,0.00,114.00,VWS V14.01,2013-10-05 14:38:00,
2013-10-05 09:40:00,71.5,69.4,29.92,South,189,1.1,6.9,93,0.00,,,0.00,144.00,VWS V14.01,2013-10-05 14:40:00,
2013-10-05 09:41:00,71.7,69.9,29.92,South,190,1.1,5.8,94,0.00,,,0.00,185.00,VWS V14.01,2013-10-05 14:41:00,
2013-10-05 09:43:00,71.9,69.8,29.92,South,190,3.4,5.8,93,0.00,,,0.00,144.00,VWS V14.01,2013-10-05 14:43:00,
2013-10-05 09:44:00,71.9,69.8,29.92,South,190,2.3,5.8,93,0.00,,,0.00,142.00,VWS V14.01,2013-10-05 14:44:00,
2013-10-05 09:45:00,72.0,69.9,29.92,South,190,1.1,5.8,93,0.00,,,0.00,141.00,VWS V14.01,2013-10-05 14:45:00,
2013-10-05 09:47:00,72.1,70.0,29.92,South,190,3.4,5.8,93,0.00,,,0.00,134.00,VWS V14.01,2013-10-05 14:47:00,
2013-10-05 09:48:00,72.0,69.9,29.92,South,190,3.4,5.8,93,0.00,,,0.00,130.00,VWS V14.01,2013-10-05 14:48:00,
2013-10-05 09:49:00,72.1,70.0,29.92,South,179,10.3,10.3,93,0.00,,,0.00,148.00,VWS V14.01,2013-10-05 14:49:00,
2013-10-05 09:50:00,72.1,70.0,29.92,South,187,6.9,10.3,93,0.00,,,0.00,162.00,VWS V14.01,2013-10-05 14:50:00,
2013-10-05 09:51:00,72.1,70.0,29.92,South,188,5.8,6.9,93,0.00,,,0.00,172.00,VWS V14.01,2013-10-05 14:51:00,
2013-10-05 09:53:00,72.1,69.7,29.92,South,188,3.4,6.9,92,0.00,,,0.00,178.00,VWS V14.01,2013-10-05 14:53:00,
2013-10-05 09:54:00,72.2,69.8,29.92,South,188,3.4,6.9,92,0.00,,,0.00,202.00,VWS V14.01,2013-10-05 14:54:00,
2013-10-05 09:55:00,72.3,69.8,29.92,South,191,5.8,8.1,92,0.00,,,0.00,185.00,VWS V14.01,2013-10-05 14:55:00,
2013-10-05 09:56:00,72.3,69.8,29.92,South,191,6.9,6.9,92,0.00,,,0.00,185.00,VWS V14.01,2013-10-05 14:56:00,
2013-10-05 09:57:00,72.4,69.9,29.92,South,191,2.3,6.9,92,0.00,,,0.00,178.00,VWS V14.01,2013-10-05 14:57:00,
2013-10-05 09:58:00,72.5,70.1,29.92,South,191,4.6,6.9,92,0.00,,,0.00,197.00,VWS V14.01,2013-10-05 14:58:00,
2013-10-05 10:00:00,72.6,70.2,29.92,South,190,4.6,6.9,92,0.00,,,0.00,239.00,VWS V14.01,2013-10-05 15:00:00,
2013-10-05 10:01:00,72.7,70.2,29.92,South,188,3.4,4.6,92,0.00,,,0.00,225.00,VWS V14.01,2013-10-05 15:01:00,
2013-10-05 10:02:00,72.8,70.3,29.92,South,188,3.4,5.8,92,0.00,,,0.00,193.00,VWS V14.01,2013-10-05 15:02:00,
2013-10-05 10:03:00,72.9,70.4,29.92,SSW,194,3.4,5.8,92,0.00,,,0.00,174.00,VWS V14.01,2013-10-05 15:03:00,
2013-10-05 10:05:00,73.0,70.5,29.92,SSW,193,4.6,8.1,92,0.00,,,0.00,123.00,VWS V14.01,2013-10-05 15:05:00,
2013-10-05 10:06:00,73.0,70.2,29.92,South,191,6.9,9.2,91,0.00,,,0.00,139.00,VWS V14.01,2013-10-05 15:06:00,
2013-10-05 10:07:00,73.0,70.2,29.92,SSW,194,5.8,9.2,91,0.00,,,0.00,139.00,VWS V14.01,2013-10-05 15:07:00,
2013-10-05 10:08:00,73.0,70.2,29.92,South,189,8.1,9.2,91,0.00,,,0.00,174.00,VWS V14.01,2013-10-05 15:08:00,
2013-10-05 10:09:00,73.0,70.2,29.92,South,171,9.2,9.2,91,0.00,,,0.00,192.00,VWS V14.01,2013-10-05 15:09:00,
2013-10-05 10:10:00,73.0,70.2,29.92,South,174,3.4,9.2,91,0.00,,,0.00,218.00,VWS V14.01,2013-10-05 15:10:00,
2013-10-05 10:12:00,73.0,70.2,29.92,South,176,4.6,6.9,91,0.00,,,0.00,188.00,VWS V14.01,2013-10-05 15:12:00,
2013-10-05 10:13:00,73.1,70.3,29.92,South,176,3.4,6.9,91,0.00,,,0.00,151.00,VWS V14.01,2013-10-05 15:13:00,
2013-10-05 10:14:00,73.1,70.3,29.92,South,176,5.8,6.9,91,0.00,,,0.00,130.00,VWS V14.01,2013-10-05 15:14:00,
2013-10-05 10:15:00,73.2,70.4,29.92,South,182,3.5,6.9,91,0.00,,,0.00,134.00,VWS V14.01,2013-10-05 15:15:00,
2013-10-05 10:16:00,73.2,70.4,29.92,SSW,210,4.6,6.9,91,0.00,,,0.00,134.00,VWS V14.01,2013-10-05 15:16:00,
2013-10-05 10:18:00,73.2,70.4,29.92,SW,222,2.3,6.9,91,0.00,,,0.00,125.00,VWS V14.01,2013-10-05 15:18:00,
2013-10-05 10:19:00,73.2,70.4,29.92,SW,221,3.4,6.9,91,0.00,,,0.00,120.00,VWS V14.01,2013-10-05 15:19:00,
2013-10-05 10:20:00,73.2,70.4,29.92,SW,221,0.0,6.9,91,0.00,,,0.00,123.00,VWS V14.01,2013-10-05 15:20:00,
2013-10-05 10:21:00,73.2,70.1,29.92,SSW,193,6.9,6.9,90,0.00,,,0.00,113.00,VWS V14.01,2013-10-05 15:21:00,
2013-10-05 10:22:00,73.2,70.1,29.92,SSW,212,3.4,6.9,90,0.00,,,0.00,111.00,VWS V14.01,2013-10-05 15:22:00,
2013-10-05 10:24:00,73.2,70.1,29.92,SSW,212,1.1,6.9,90,0.00,,,0.00,127.00,VWS V14.01,2013-10-05 15:24:00,
2013-10-05 10:25:00,73.2,70.1,29.92,SSW,212,3.4,3.4,90,0.00,,,0.00,167.00,VWS V14.01,2013-10-05 15:25:00,
2013-10-05 10:26:00,73.3,70.2,29.92,South,169,5.8,10.3,90,0.00,,,0.00,195.00,VWS V14.01,2013-10-05 15:26:00,
2013-10-05 10:27:00,73.3,70.2,29.92,South,180,4.6,10.3,90,0.00,,,0.00,197.00,VWS V14.01,2013-10-05 15:27:00,
2013-10-05 10:29:00,73.5,70.4,29.92,South,175,2.3,10.3,90,0.00,,,0.00,209.00,VWS V14.01,2013-10-05 15:29:00,
2013-10-05 10:30:00,73.5,70.4,29.92,South,175,3.4,10.3,90,0.00,,,0.00,181.00,VWS V14.01,2013-10-05 15:30:00,
2013-10-05 10:32:00,73.6,70.8,29.92,South,179,8.1,8.1,91,0.00,,,0.00,176.00,VWS V14.01,2013-10-05 15:32:00,
2013-10-05 10:33:00,73.7,70.6,29.92,South,180,4.6,8.1,90,0.00,,,0.00,160.00,VWS V14.01,2013-10-05 15:33:00,
2013-10-05 10:35:00,73.8,70.7,29.92,South,181,8.1,9.2,90,0.00,,,0.00,105.00,VWS V14.01,2013-10-05 15:35:00,
2013-10-05 10:37:00,73.8,70.4,29.92,South,180,4.6,8.1,89,0.00,,,0.00,111.00,VWS V14.01,2013-10-05 15:37:00,
2013-10-05 10:38:00,73.8,70.4,29.92,South,182,2.3,8.1,89,0.00,,,0.00,116.00,VWS V14.01,2013-10-05 15:38:00,
2013-10-05 10:39:00,73.8,70.4,29.92,SSW,192,3.4,8.1,89,0.00,,,0.00,109.00,VWS V14.01,2013-10-05 15:39:00,
2013-10-05 10:40:00,73.8,70.4,29.92,SSW,196,6.9,8.1,89,0.00,,,0.00,100.00,VWS V14.01,2013-10-05 15:40:00,
2013-10-05 10:42:00,73.9,70.8,29.92,SSE,165,5.8,9.2,90,0.00,,,0.00,100.00,VWS V14.01,2013-10-05 15:42:00,
2013-10-05 10:43:00,73.9,70.5,29.92,SSE,167,3.4,9.2,89,0.00,,,0.00,127.00,VWS V14.01,2013-10-05 15:43:00,
2013-10-05 10:44:00,73.9,70.8,29.92,South,180,10.3,10.3,90,0.00,,,0.00,162.00,VWS V14.01,2013-10-05 15:44:00,
2013-10-05 10:45:00,73.9,70.5,29.92,South,190,2.3,10.4,89,0.00,,,0.00,144.00,VWS V14.01,2013-10-05 15:45:00,
2013-10-05 10:47:00,74.0,70.6,29.92,South,190,2.3,5.8,89,0.00,,,0.00,281.00,VWS V14.01,2013-10-05 15:47:00,
2013-10-05 10:48:00,74.1,71.0,29.92,South,190,4.6,6.9,90,0.00,,,0.00,406.00,VWS V14.01,2013-10-05 15:48:00,
2013-10-05 10:49:00,74.2,71.1,29.92,South,184,2.3,6.9,90,0.00,,,0.00,406.00,VWS V14.01,2013-10-05 15:49:00,
2013-10-05 10:50:00,74.4,71.3,29.92,SSE,167,6.9,6.9,90,0.01,,,0.01,297.00,VWS V14.01,2013-10-05 15:50:00,
2013-10-05 10:53:00,74.4,71.6,29.92,SSE,167,2.3,12.6,91,0.01,,,0.01,227.00,VWS V14.01,2013-10-05 15:53:00,
2013-10-05 10:54:00,74.4,71.6,29.92,SSE,167,0.0,12.6,91,0.01,,,0.01,253.00,VWS V14.01,2013-10-05 15:54:00,
2013-10-05 10:55:00,74.4,71.6,29.92,South,175,10.3,12.6,91,0.01,,,0.01,253.00,VWS V14.01,2013-10-05 15:55:00,
2013-10-05 10:58:00,74.4,71.3,29.92,SSE,159,1.1,8.1,90,0.01,,,0.01,230.00,VWS V14.01,2013-10-05 15:58:00,
2013-10-05 10:59:00,74.4,71.3,29.92,South,182,8.1,8.1,90,0.01,,,0.01,243.00,VWS V14.01,2013-10-05 15:59:00,
2013-10-05 11:00:00,74.5,71.4,29.92,SSE,163,5.8,9.2,90,0.01,,,0.01,281.00,VWS V14.01,2013-10-05 16:00:00,
2013-10-05 11:01:00,74.5,71.4,29.91,SSW,199,3.4,8.1,90,0.01,,,0.01,295.00,VWS V14.01,2013-10-05 16:01:00,
2013-10-05 11:03:00,74.8,72.0,29.91,South,189,2.3,9.2,91,0.01,,,0.01,359.00,VWS V14.01,2013-10-05 16:03:00,
2013-10-05 11:05:00,75.1,72.3,29.92,South,174,1.1,9.2,91,0.01,,,0.01,288.00,VWS V14.01,2013-10-05 16:05:00,
2013-10-05 11:06:00,75.2,72.4,29.91,SSE,148,6.9,6.9,91,0.01,,,0.01,288.00,VWS V14.01,2013-10-05 16:06:00,
2013-10-05 11:10:00,75.4,71.9,29.91,South,182,0.0,4.6,89,0.01,,,0.01,269.00,VWS V14.01,2013-10-05 16:10:00,
2013-10-05 11:11:00,75.4,71.9,29.91,South,172,0.0,4.6,89,0.01,,,0.01,255.00,VWS V14.01,2013-10-05 16:11:00,
2013-10-05 11:12:00,75.5,71.7,29.91,South,172,3.4,4.6,88,0.01,,,0.01,248.00,VWS V14.01,2013-10-05 16:12:00,
2013-10-05 11:13:00,75.5,72.0,29.91,South,182,3.4,5.8,89,0.01,,,0.01,248.00,VWS V14.01,2013-10-05 16:13:00,
2013-10-05 11:15:00,75.5,71.4,29.91,South,190,6.9,9.2,87,0.01,,,0.01,230.00,VWS V14.01,2013-10-05 16:15:00,
2013-10-05 11:16:00,75.5,71.7,29.91,South,190,1.1,6.9,88,0.01,,,0.01,199.00,VWS V14.01,2013-10-05 16:16:00,
2013-10-05 11:17:00,75.5,71.7,29.91,SSW,194,4.6,6.9,88,0.01,,,0.01,199.00,VWS V14.01,2013-10-05 16:17:00,
2013-10-05 11:18:00,75.5,71.7,29.91,South,188,1.1,6.9,88,0.01,,,0.01,199.00,VWS V14.01,2013-10-05 16:18:00,
2013-10-05 11:20:00,75.5,71.7,29.91,South,181,6.9,12.6,88,0.01,,,0.01,234.00,VWS V14.01,2013-10-05 16:20:00,
2013-10-05 11:22:00,75.6,71.8,29.91,South,171,1.1,9.2,88,0.01,,,0.01,241.00,VWS V14.01,2013-10-05 16:22:00,
2013-10-05 11:23:00,75.5,71.7,29.91,SSE,167,6.9,9.2,88,0.01,,,0.01,234.00,VWS V14.01,2013-10-05 16:23:00,
2013-10-05 11:25:00,75.7,71.9,29.91,SSW,209,0.0,9.2,88,0.01,,,0.01,179.00,VWS V14.01,2013-10-05 16:25:00,
2013-10-05 11:26:00,75.8,72.0,29.91,SSW,204,2.3,3.4,88,0.01,,,0.01,162.00,VWS V14.01,2013-10-05 16:26:00,
2013-10-05 11:27:00,75.8,72.0,29.91,SSW,204,1.1,3.4,88,0.01,,,0.01,162.00,VWS V14.01,2013-10-05 16:27:00,
2013-10-05 11:28:00,75.7,71.6,29.91,SSW,204,3.4,4.6,87,0.01,,,0.01,155.00,VWS V14.01,2013-10-05 16:28:00,
2013-10-05 11:29:00,75.7,71.6,29.91,SSW,204,0.0,4.6,87,0.01,,,0.01,155.00,VWS V14.01,2013-10-05 16:29:00,
2013-10-05 11:30:00,75.7,71.9,29.91,South,173,0.0,8.1,88,0.01,,,0.01,171.00,VWS V14.01,2013-10-05 16:30:00,
2013-10-05 11:32:00,75.7,71.6,29.91,SSW,206,4.6,8.1,87,0.01,,,0.01,204.00,VWS V14.01,2013-10-05 16:32:00,
2013-10-05 11:33:00,75.7,71.6,29.91,SSW,205,1.1,8.1,87,0.01,,,0.01,229.00,VWS V14.01,2013-10-05 16:33:00,
2013-10-05 11:34:00,75.8,71.7,29.91,SSW,205,1.1,8.1,87,0.01,,,0.01,229.00,VWS V14.01,2013-10-05 16:34:00,
2013-10-05 11:35:00,75.9,71.8,29.91,SSW,205,2.3,8.1,87,0.01,,,0.01,285.00,VWS V14.01,2013-10-05 16:35:00,
2013-10-05 11:36:00,76.0,71.9,29.90,SE,140,6.9,6.9,87,0.01,,,0.01,285.00,VWS V14.01,2013-10-05 16:36:00,
2013-10-05 11:38:00,76.1,71.6,29.91,SSE,163,3.4,8.1,86,0.01,,,0.01,309.00,VWS V14.01,2013-10-05 16:38:00,
2013-10-05 11:39:00,76.2,71.4,29.90,South,170,4.6,8.1,85,0.01,,,0.01,292.00,VWS V14.01,2013-10-05 16:39:00,
2013-10-05 11:40:00,76.3,71.8,29.90,SSE,148,4.6,8.1,86,0.01,,,0.01,255.00,VWS V14.01,2013-10-05 16:40:00,
2013-10-05 11:41:00,76.4,71.9,29.90,SSE,158,2.3,5.8,86,0.01,,,0.01,255.00,VWS V14.01,2013-10-05 16:41:00,
2013-10-05 11:42:00,76.4,71.9,29.90,South,177,5.8,10.3,86,0.01,,,0.01,274.00,VWS V14.01,2013-10-05 16:42:00,
2013-10-05 11:43:00,76.5,72.0,29.90,South,188,5.8,10.3,86,0.01,,,0.01,355.00,VWS V14.01,2013-10-05 16:43:00,
2013-10-05 11:44:00,76.6,72.1,29.90,SSE,147,9.2,10.3,86,0.01,,,0.01,450.00,VWS V14.01,2013-10-05 16:44:00,
2013-10-05 11:45:00,76.8,72.6,29.90,SE,132,1.1,10.4,87,0.01,,,0.01,450.00,VWS V14.01,2013-10-05 16:45:00,
2013-10-05 11:46:00,76.9,72.7,29.90,SE,134,1.1,2.3,87,0.01,,,0.01,450.00,VWS V14.01,2013-10-05 16:46:00,
2013-10-05 11:47:00,77.2,72.3,29.89,SE,140,0.0,3.4,85,0.01,,,0.01,450.00,VWS V14.01,2013-10-05 16:47:00,
2013-10-05 11:48:00,77.4,72.2,29.89,South,178,5.8,6.9,84,0.01,,,0.01,450.00,VWS V14.01,2013-10-05 16:48:00,
2013-10-05 11:50:00,77.6,72.0,29.89,South,184,3.4,3.4,83,0.00,,,0.01,420.00,VWS V14.01,2013-10-05 16:50:00,
2013-10-05 11:51:00,77.6,72.4,29.89,South,184,2.3,3.4,84,0.00,,,0.01,420.00,VWS V14.01,2013-10-05 16:51:00,
2013-10-05 11:52:00,77.6,72.0,29.89,South,182,10.3,10.3,83,0.00,,,0.01,789.00,VWS V14.01,2013-10-05 16:52:00,
2013-10-05 11:55:00,77.9,72.0,29.89,South,191,0.0,10.3,82,0.00,,,0.01,812.00,VWS V14.01,2013-10-05 16:55:00,
2013-10-05 11:56:00,77.9,72.0,29.89,South,191,0.0,4.6,82,0.00,,,0.01,211.00,VWS V14.01,2013-10-05 16:56:00,
2013-10-05 11:57:00,77.9,72.0,29.89,South,191,0.0,4.6,82,0.00,,,0.01,211.00,VWS V14.01,2013-10-05 16:57:00,
2013-10-05 11:58:00,77.8,71.9,29.89,South,191,0.0,4.6,82,0.00,,,0.01,239.00,VWS V14.01,2013-10-05 16:58:00,
2013-10-05 12:00:00,77.7,72.5,29.89,South,191,0.0,4.6,84,0.00,,,0.01,315.00,VWS V14.01,2013-10-05 17:00:00,
2013-10-05 12:02:00,77.8,72.2,29.89,South,191,2.3,3.4,83,0.00,,,0.01,315.00,VWS V14.01,2013-10-05 17:02:00,
2013-10-05 12:03:00,77.9,72.3,29.88,South,191,2.3,4.6,83,0.00,,,0.01,264.00,VWS V14.01,2013-10-05 17:03:00,
2013-10-05 12:04:00,78.0,72.8,29.88,South,178,8.1,8.1,84,0.00,,,0.01,237.00,VWS V14.01,2013-10-05 17:04:00,
2013-10-05 12:05:00,78.2,73.3,29.88,South,177,5.8,8.1,85,0.00,,,0.01,220.00,VWS V14.01,2013-10-05 17:05:00,
2013-10-05 12:07:00,78.3,72.4,29.88,South,177,1.1,5.8,82,0.00,,,0.01,294.00,VWS V14.01,2013-10-05 17:07:00,
2013-10-05 12:09:00,78.2,72.3,29.88,South,177,0.0,5.8,82,0.00,,,0.01,260.00,VWS V14.01,2013-10-05 17:09:00,
2013-10-05 12:10:00,78.3,72.7,29.88,South,177,0.0,5.8,83,0.00,,,0.01,258.00,VWS V14.01,2013-10-05 17:10:00,
2013-10-05 12:11:00,78.3,72.7,29.88,SSE,167,6.9,9.2,83,0.00,,,0.01,290.00,VWS V14.01,2013-10-05 17:11:00,
2013-10-05 12:14:00,78.2,72.3,29.88,SSE,159,3.4,9.2,82,0.00,,,0.01,329.00,VWS V14.01,2013-10-05 17:14:00,
2013-10-05 12:15:00,78.3,72.4,29.88,SSE,159,0.0,9.2,82,0.00,,,0.01,329.00,VWS V14.01,2013-10-05 17:15:00,
2013-10-05 12:16:00,78.4,72.8,29.88,SSE,162,3.4,6.9,83,0.00,,,0.01,740.00,VWS V14.01,2013-10-05 17:16:00,
2013-10-05 12:17:00,78.6,72.7,29.88,SSE,163,2.3,6.9,82,0.00,,,0.01,740.00,VWS V14.01,2013-10-05 17:17:00,
2013-10-05 12:19:00,79.1,73.5,29.88,SSE,165,3.4,6.9,83,0.00,,,0.01,851.00,VWS V14.01,2013-10-05 17:19:00,
2013-10-05 12:20:00,79.4,73.1,29.88,South,178,11.5,11.5,81,0.00,,,0.01,851.00,VWS V14.01,2013-10-05 17:20:00,
2013-10-05 12:21:00,79.5,72.8,29.88,South,181,9.2,9.2,80,0.00,,,0.01,851.00,VWS V14.01,2013-10-05 17:21:00,
2013-10-05 12:22:00,79.5,72.8,29.88,SSW,194,6.9,9.2,80,0.00,,,0.01,197.00,VWS V14.01,2013-10-05 17:22:00,
2013-10-05 12:23:00,79.3,71.8,29.88,South,188,3.4,9.2,78,0.00,,,0.01,197.00,VWS V14.01,2013-10-05 17:23:00,
2013-10-05 12:24:00,79.3,72.6,29.88,South,188,4.6,9.2,80,0.00,,,0.01,772.00,VWS V14.01,2013-10-05 17:24:00,
2013-10-05 12:25:00,79.3,73.0,29.88,South,187,5.8,9.2,81,0.00,,,0.01,772.00,VWS V14.01,2013-10-05 17:25:00,
2013-10-05 12:26:00,79.4,73.1,29.88,South,188,6.9,8.1,81,0.00,,,0.01,772.00,VWS V14.01,2013-10-05 17:26:00,
2013-10-05 12:27:00,79.4,72.3,29.88,South,188,6.9,9.2,79,0.00,,,0.01,227.00,VWS V14.01,2013-10-05 17:27:00,
2013-10-05 12:29:00,79.3,71.8,29.88,South,190,6.9,9.2,78,0.00,,,0.01,163.00,VWS V14.01,2013-10-05 17:29:00,
2013-10-05 12:30:00,79.1,72.4,29.88,South,189,4.6,4.6,80,0.00,,,0.01,185.00,VWS V14.01,2013-10-05 17:30:00,
2013-10-05 12:31:00,79.0,71.9,29.88,SSW,200,8.1,8.1,79,0.00,,,0.01,185.00,VWS V14.01,2013-10-05 17:31:00,
2013-10-05 12:32:00,78.9,72.6,29.88,SSE,161,3.4,8.1,81,0.00,,,0.01,185.00,VWS V14.01,2013-10-05 17:32:00,
2013-10-05 12:35:00,78.8,71.7,29.88,South,182,5.8,10.4,79,0.00,,,0.01,297.00,VWS V14.01,2013-10-05 17:35:00,
2013-10-05 12:36:00,78.8,72.1,29.87,SSE,154,5.8,5.8,80,0.00,,,0.01,299.00,VWS V14.01,2013-10-05 17:36:00,
2013-10-05 12:37:00,78.8,72.1,29.87,South,169,8.1,11.5,80,0.00,,,0.01,304.00,VWS V14.01,2013-10-05 17:37:00,
2013-10-05 12:38:00,78.8,71.7,29.87,SSE,162,10.3,13.8,79,0.00,,,0.01,341.00,VWS V14.01,2013-10-05 17:38:00,
2013-10-05 12:40:00,78.9,72.2,29.87,SE,138,9.2,13.8,80,0.00,,,0.01,675.00,VWS V14.01,2013-10-05 17:40:00,
2013-10-05 12:41:00,79.2,71.8,29.87,SSE,159,1.1,10.3,78,0.00,,,0.01,715.00,VWS V14.01,2013-10-05 17:41:00,
2013-10-05 12:42:00,79.3,71.8,29.87,SE,142,4.6,10.3,78,0.00,,,0.01,715.00,VWS V14.01,2013-10-05 17:42:00,
2013-10-05 12:43:00,79.5,72.0,29.87,South,169,13.8,13.8,78,0.00,,,0.01,387.00,VWS V14.01,2013-10-05 17:43:00,
2013-10-05 12:45:00,79.8,72.3,29.87,SSE,164,6.9,16.1,78,0.00,,,0.01,689.00,VWS V14.01,2013-10-05 17:45:00,
2013-10-05 12:47:00,80.2,73.1,29.87,SSE,161,10.3,14.9,79,0.00,,,0.01,689.00,VWS V14.01,2013-10-05 17:47:00,
2013-10-05 12:48:00,80.2,71.6,29.87,SW,225,8.1,16.1,75,0.00,,,0.01,272.00,VWS V14.01,2013-10-05 17:48:00,
2013-10-05 12:50:00,80.0,71.4,29.87,SSE,166,2.3,16.1,75,0.00,,,0.01,227.00,VWS V14.01,2013-10-05 17:50:00,
2013-10-05 12:52:00,79.7,71.9,29.87,South,188,8.1,9.2,77,0.00,,,0.01,243.00,VWS V14.01,2013-10-05 17:52:00,
2013-10-05 12:53:00,79.6,72.1,29.87,SSW,192,8.1,9.2,78,0.00,,,0.01,243.00,VWS V14.01,2013-10-05 17:53:00,
2013-10-05 12:54:00,79.7,71.9,29.87,South,175,12.6,12.6,77,0.00,,,0.01,258.00,VWS V14.01,2013-10-05 17:54:00,
2013-10-05 12:55:00,79.7,71.9,29.87,SW,217,2.3,3.4,77,0.00,,,0.01,673.00,VWS V14.01,2013-10-05 17:55:00,
2013-10-05 12:57:00,80.0,72.5,29.86,South,174,9.2,9.2,78,0.00,,,0.01,673.00,VWS V14.01,2013-10-05 17:57:00,
2013-10-05 12:58:00,80.2,72.7,29.86,SSE,163,3.4,9.2,78,0.00,,,0.01,759.00,VWS V14.01,2013-10-05 17:58:00,
2013-10-05 12:59:00,80.3,72.8,29.86,South,177,5.8,9.2,78,0.00,,,0.01,754.00,VWS V14.01,2013-10-05 17:59:00,
2013-10-05 13:00:00,80.7,72.4,29.86,SW,219,10.4,16.1,76,0.00,,,0.01,728.00,VWS V14.01,2013-10-05 18:00:00,
2013-10-05 13:01:00,80.8,72.5,29.86,South,173,11.5,13.8,76,0.00,,,0.01,715.00,VWS V14.01,2013-10-05 18:01:00,
2013-10-05 13:03:00,81.1,71.2,29.86,SSW,202,5.8,13.8,72,0.00,,,0.01,650.00,VWS V14.01,2013-10-05 18:03:00,
2013-10-05 13:04:00,80.9,71.0,29.86,South,182,3.4,13.8,72,0.00,,,0.01,650.00,VWS V14.01,2013-10-05 18:04:00,
2013-10-05 13:05:00,80.7,71.2,29.86,SE,140,6.9,13.8,73,0.00,,,0.01,650.00,VWS V14.01,2013-10-05 18:05:00,
2013-10-05 13:07:00,80.7,72.8,29.86,SSE,152,6.9,12.6,77,0.00,,,0.01,687.00,VWS V14.01,2013-10-05 18:07:00,
2013-10-05 13:08:00,80.8,72.9,29.85,South,179,5.8,12.6,77,0.00,,,0.01,687.00,VWS V14.01,2013-10-05 18:08:00,
2013-10-05 13:09:00,80.9,71.8,29.85,South,176,10.3,12.6,74,0.00,,,0.01,427.00,VWS V14.01,2013-10-05 18:09:00,
2013-10-05 13:10:00,80.9,71.8,29.86,South,170,4.6,12.6,74,0.00,,,0.01,357.00,VWS V14.01,2013-10-05 18:10:00,
2013-10-05 13:14:00,81.5,73.2,29.85,SSE,154,5.8,8.1,76,0.00,,,0.01,475.00,VWS V14.01,2013-10-05 18:14:00,
2013-10-05 13:15:00,81.3,71.8,29.85,South,187,2.3,9.2,73,0.00,,,0.01,387.00,VWS V14.01,2013-10-05 18:15:00,
2013-10-05 13:16:00,81.2,71.7,29.85,SSE,163,6.9,9.2,73,0.00,,,0.01,232.00,VWS V14.01,2013-10-05 18:16:00,
2013-10-05 13:20:00,80.5,71.1,29.85,SSW,207,4.6,4.6,73,0.00,,,0.01,267.00,VWS V14.01,2013-10-05 18:20:00,
2013-10-05 13:21:00,80.4,71.4,29.85,SW,215,3.4,4.6,74,0.00,,,0.01,267.00,VWS V14.01,2013-10-05 18:21:00,
2013-10-05 13:22:00,80.2,71.6,29.85,SW,216,3.4,5.8,75,0.00,,,0.01,265.00,VWS V14.01,2013-10-05 18:22:00,
2013-10-05 13:24:00,80.2,71.9,29.85,SSW,205,3.4,8.1,76,0.00,,,0.01,239.00,VWS V14.01,2013-10-05 18:24:00,
2013-10-05 13:25:00,80.2,71.9,29.85,SSW,192,3.5,8.1,76,0.00,,,0.01,190.00,VWS V14.01,2013-10-05 18:25:00,
2013-10-05 13:26:00,80.2,71.2,29.84,South,191,1.1,4.6,74,0.00,,,0.01,190.00,VWS V14.01,2013-10-05 18:26:00,
2013-10-05 13:28:00,80.3,71.7,29.84,SSW,212,8.1,10.3,75,0.00,,,0.01,153.00,VWS V14.01,2013-10-05 18:28:00,
2013-10-05 13:29:00,80.3,72.1,29.84,South,186,10.3,11.5,76,0.00,,,0.01,139.00,VWS V14.01,2013-10-05 18:29:00,
2013-10-05 13:30:00,80.2,71.2,29.84,South,176,5.8,6.9,74,0.00,,,0.01,125.00,VWS V14.01,2013-10-05 18:30:00,
2013-10-05 13:31:00,80.0,71.4,29.84,SE,140,4.6,8.1,75,0.00,,,0.01,144.00,VWS V14.01,2013-10-05 18:31:00,
2013-10-05 13:34:00,79.7,71.1,29.84,SSE,161,6.9,10.3,75,0.00,,,0.01,156.00,VWS V14.01,2013-10-05 18:34:00,
2013-10-05 13:35:00,79.6,71.4,29.83,SSE,157,4.6,10.3,76,0.00,,,0.01,132.00,VWS V14.01,2013-10-05 18:35:00,
2013-10-05 13:36:00,79.5,72.0,29.83,SSW,192,8.1,8.1,78,0.00,,,0.01,176.00,VWS V14.01,2013-10-05 18:36:00,
2013-10-05 13:37:00,79.5,72.0,29.83,SSW,200,8.1,8.1,78,0.00,,,0.01,176.00,VWS V14.01,2013-10-05 18:37:00,
2013-10-05 13:39:00,79.6,72.1,29.83,South,190,4.6,9.2,78,0.00,,,0.01,207.00,VWS V14.01,2013-10-05 18:39:00,
2013-10-05 13:40:00,79.8,71.6,29.83,South,169,5.8,10.3,76,0.00,,,0.01,185.00,VWS V14.01,2013-10-05 18:40:00,
2013-10-05 13:41:00,79.8,71.9,29.83,WSW,252,0.0,10.3,77,0.00,,,0.01,185.00,VWS V14.01,2013-10-05 18:41:00,
2013-10-05 13:42:00,79.9,72.1,29.83,South,170,6.9,10.3,77,0.00,,,0.01,309.00,VWS V14.01,2013-10-05 18:42:00,
2013-10-05 13:43:00,80.1,71.9,29.83,SE,144,0.0,10.3,76,0.00,,,0.01,274.00,VWS V14.01,2013-10-05 18:43:00,
2013-10-05 13:45:00,80.1,71.5,29.83,South,173,8.1,10.4,75,0.00,,,0.01,216.00,VWS V14.01,2013-10-05 18:45:00,
2013-10-05 13:46:00,80.1,71.9,29.83,SSW,207,2.3,8.1,76,0.00,,,0.01,199.00,VWS V14.01,2013-10-05 18:46:00,
2013-10-05 13:47:00,80.0,71.8,29.83,SSW,205,2.3,8.1,76,0.00,,,0.01,199.00,VWS V14.01,2013-10-05 18:47:00,
2013-10-05 13:48:00,79.8,71.6,29.83,SSW,205,0.0,8.1,76,0.00,,,0.01,193.00,VWS V14.01,2013-10-05 18:48:00,
2013-10-05 13:49:00,79.8,71.6,29.82,SSW,205,0.0,8.1,76,0.00,,,0.01,190.00,VWS V14.01,2013-10-05 18:49:00,
2013-10-05 13:50:00,79.6,71.4,29.82,South,176,5.8,8.1,76,0.00,,,0.01,188.00,VWS V14.01,2013-10-05 18:50:00,
2013-10-05 13:52:00,79.7,72.2,29.82,South,175,2.3,5.8,78,0.00,,,0.01,276.00,VWS V14.01,2013-10-05 18:52:00,
2013-10-05 13:53:00,79.7,72.2,29.82,SSW,194,5.8,5.8,78,0.00,,,0.01,276.00,VWS V14.01,2013-10-05 18:53:00,
2013-10-05 13:54:00,79.8,72.3,29.82,SSW,213,5.8,6.9,78,0.00,,,0.01,258.00,VWS V14.01,2013-10-05 18:54:00,
2013-10-05 13:55:00,80.0,72.2,29.82,SSW,202,6.9,8.1,77,0.00,,,0.01,232.00,VWS V14.01,2013-10-05 18:55:00,
2013-10-05 13:58:00,79.9,71.3,29.82,SW,219,3.4,6.9,75,0.00,,,0.01,251.00,VWS V14.01,2013-10-05 18:58:00,
2013-10-05 13:59:00,79.9,71.3,29.82,SSW,199,6.9,6.9,75,0.00,,,0.01,251.00,VWS V14.01,2013-10-05 18:59:00,
2013-10-05 14:00:00,79.8,71.2,29.82,South,180,4.6,6.9,75,0.00,,,0.01,218.00,VWS V14.01,2013-10-05 19:00:00,
2013-10-05 14:03:00,79.8,71.2,29.82,South,172,8.1,8.1,75,0.00,,,0.01,183.00,VWS V14.01,2013-10-05 19:03:00,
2013-10-05 14:04:00,79.7,71.1,29.82,SSW,200,5.8,8.1,75,0.00,,,0.01,171.00,VWS V14.01,2013-10-05 19:04:00,
2013-10-05 14:05:00,79.7,71.1,29.82,SSW,194,4.6,10.3,75,0.00,,,0.01,153.00,VWS V14.01,2013-10-05 19:05:00,
2013-10-05 14:07:00,79.5,71.3,29.82,SSW,192,0.0,4.6,76,0.00,,,0.01,171.00,VWS V14.01,2013-10-05 19:07:00,
2013-10-05 14:08:00,79.4,71.2,29.82,South,187,4.6,4.6,76,0.00,,,0.01,192.00,VWS V14.01,2013-10-05 19:08:00,
2013-10-05 14:09:00,79.4,71.2,29.82,South,177,2.3,4.6,76,0.00,,,0.01,229.00,VWS V14.01,2013-10-05 19:09:00,
2013-10-05 14:10:00,79.4,71.2,29.82,SE,146,0.0,5.8,76,0.00,,,0.01,264.00,VWS V14.01,2013-10-05 19:10:00,
2013-10-05 14:11:00,79.4,70.8,29.81,SSE,166,8.1,10.3,75,0.00,,,0.01,323.00,VWS V14.01,2013-10-05 19:11:00,
2013-10-05 14:12:00,79.4,71.6,29.81,SSE,167,8.1,10.3,77,0.00,,,0.01,323.00,VWS V14.01,2013-10-05 19:12:00,
2013-10-05 14:14:00,79.8,71.6,29.81,SE,146,1.1,10.3,76,0.00,,,0.01,381.00,VWS V14.01,2013-10-05 19:14:00,
2013-10-05 14:15:00,80.1,71.5,29.81,ESE,122,5.8,10.4,75,0.00,,,0.01,311.00,VWS V14.01,2013-10-05 19:15:00,
2013-10-05 14:16:00,80.1,71.5,29.81,ESE,123,4.6,8.1,75,0.00,,,0.01,279.00,VWS V14.01,2013-10-05 19:16:00,
2013-10-05 14:17:00,80.2,71.2,29.81,ESE,119,3.4,10.3,74,0.00,,,0.01,279.00,VWS V14.01,2013-10-05 19:17:00,
2013-10-05 14:19:00,80.2,71.9,29.81,SSE,165,0.0,10.3,76,0.00,,,0.01,323.00,VWS V14.01,2013-10-05 19:19:00,
2013-10-05 14:20:00,80.4,71.4,29.81,SSE,165,3.4,10.3,74,0.00,,,0.01,323.00,VWS V14.01,2013-10-05 19:20:00,
2013-10-05 14:23:00,80.9,72.2,29.81,SE,144,3.4,10.3,75,0.00,,,0.01,438.00,VWS V14.01,2013-10-05 19:23:00,
2013-10-05 14:25:00,81.1,72.4,29.81,SE,125,4.6,10.3,75,0.00,,,0.01,387.00,VWS V14.01,2013-10-05 19:25:00,
2013-10-05 14:26:00,81.2,72.1,29.81,South,174,5.8,6.9,74,0.00,,,0.01,466.00,VWS V14.01,2013-10-05 19:26:00,
2013-10-05 14:28:00,81.2,72.5,29.80,South,190,5.8,9.2,75,0.00,,,0.01,512.00,VWS V14.01,2013-10-05 19:28:00,
2013-10-05 14:30:00,81.4,72.3,29.80,ESE,123,8.1,9.2,74,0.00,,,0.01,499.00,VWS V14.01,2013-10-05 19:30:00,
2013-10-05 14:31:00,81.4,71.1,29.80,SSE,153,3.4,9.2,71,0.00,,,0.01,499.00,VWS V14.01,2013-10-05 19:31:00,
2013-10-05 14:32:00,81.2,70.9,29.80,SE,144,9.2,9.2,71,0.00,,,0.01,315.00,VWS V14.01,2013-10-05 19:32:00,
2013-10-05 14:34:00,81.1,71.6,29.80,South,184,8.1,10.3,73,0.00,,,0.01,258.00,VWS V14.01,2013-10-05 19:34:00,
2013-10-05 14:35:00,81.1,70.8,29.80,South,174,11.5,11.5,71,0.00,,,0.01,258.00,VWS V14.01,2013-10-05 19:35:00,
2013-10-05 14:36:00,81.0,70.3,29.80,SSW,192,9.2,9.2,70,0.00,,,0.01,243.00,VWS V14.01,2013-10-05 19:36:00,
2013-10-05 14:37:00,80.9,70.6,29.80,South,179,5.8,10.3,71,0.00,,,0.01,220.00,VWS V14.01,2013-10-05 19:37:00,
2013-10-05 14:38:00,80.7,70.8,29.80,SE,130,3.4,11.5,72,0.00,,,0.01,269.00,VWS V14.01,2013-10-05 19:38:00,
2013-10-05 14:40:00,80.3,70.1,29.80,SE,134,4.6,13.8,71,0.00,,,0.01,243.00,VWS V14.01,2013-10-05 19:40:00,
2013-10-05 14:41:00,80.3,70.5,29.80,SE,137,5.8,5.8,72,0.00,,,0.01,243.00,VWS V14.01,2013-10-05 19:41:00,
2013-10-05 14:42:00,80.1,70.3,29.80,South,184,4.6,11.5,72,0.00,,,0.01,248.00,VWS V14.01,2013-10-05 19:42:00,
2013-10-05 14:44:00,80.0,70.6,29.80,SE,146,4.6,11.5,73,0.00,,,0.01,330.00,VWS V14.01,2013-10-05 19:44:00,
2013-10-05 14:45:00,80.1,70.7,29.80,South,186,5.8,11.5,73,0.00,,,0.01,267.00,VWS V14.01,2013-10-05 19:45:00,
2013-10-05 14:46:00,80.1,70.7,29.80,SSE,163,0.0,6.9,73,0.00,,,0.01,267.00,VWS V14.01,2013-10-05 19:46:00,
2013-10-05 14:47:00,80.1,70.7,29.80,South,175,4.6,8.1,73,0.00,,,0.01,267.00,VWS V14.01,2013-10-05 19:47:00,
2013-10-05 14:48:00,80.2,70.8,29.80,SSE,154,3.4,8.1,73,0.00,,,0.01,267.00,VWS V14.01,2013-10-05 19:48:00,
2013-10-05 14:50:00,80.8,70.9,29.80,SSE,157,3.4,11.5,72,0.00,,,0.01,700.00,VWS V14.01,2013-10-05 19:50:00,
2013-10-05 14:51:00,81.1,71.2,29.79,SSE,167,3.4,5.8,72,0.00,,,0.01,594.00,VWS V14.01,2013-10-05 19:51:00,
2013-10-05 14:52:00,81.1,71.2,29.79,SSE,165,1.1,5.8,72,0.00,,,0.01,594.00,VWS V14.01,2013-10-05 19:52:00,
2013-10-05 14:53:00,81.3,71.4,29.79,SE,139,5.8,6.9,72,0.00,,,0.01,594.00,VWS V14.01,2013-10-05 19:53:00,
2013-10-05 14:54:00,81.4,71.1,29.79,ESE,121,3.4,9.2,71,0.00,,,0.01,174.00,VWS V14.01,2013-10-05 19:54:00,
2013-10-05 14:55:00,81.0,70.7,29.80,SSE,156,8.1,8.1,71,0.00,,,0.01,162.00,VWS V14.01,2013-10-05 19:55:00,
2013-10-05 14:57:00,80.8,70.5,29.80,SSE,157,6.9,8.1,71,0.00,,,0.01,158.00,VWS V14.01,2013-10-05 19:57:00,
2013-10-05 14:58:00,80.6,70.8,29.80,SSE,166,3.4,10.3,72,0.00,,,0.01,153.00,VWS V14.01,2013-10-05 19:58:00,
2013-10-05 14:59:00,80.2,70.8,29.80,SSE,153,3.4,10.3,73,0.00,,,0.01,207.00,VWS V14.01,2013-10-05 19:59:00,
2013-10-05 15:00:00,80.1,70.3,29.80,South,173,8.1,10.4,72,0.00,,,0.01,220.00,VWS V14.01,2013-10-05 20:00:00,
2013-10-05 15:01:00,80.0,70.6,29.80,ESE,121,8.1,9.2,73,0.00,,,0.01,239.00,VWS V14.01,2013-10-05 20:01:00,
2013-10-05 15:02:00,79.9,70.5,29.80,SSE,148,5.8,9.2,73,0.00,,,0.01,239.00,VWS V14.01,2013-10-05 20:02:00,
2013-10-05 15:05:00,80.1,71.1,29.80,SE,127,3.4,10.3,74,0.00,,,0.01,301.00,VWS V14.01,2013-10-05 20:05:00,
2013-10-05 15:06:00,80.2,71.2,29.80,SSE,150,6.9,9.2,74,0.00,,,0.01,334.00,VWS V14.01,2013-10-05 20:06:00,
2013-10-05 15:07:00,80.3,71.7,29.80,South,173,4.6,12.6,75,0.00,,,0.01,221.00,VWS V14.01,2013-10-05 20:07:00,
2013-10-05 15:10:00,80.4,71.4,29.80,ESE,119,8.1,13.8,74,0.00,,,0.01,109.00,VWS V14.01,2013-10-05 20:10:00,
2013-10-05 15:11:00,80.4,71.0,29.80,SSE,148,11.5,11.5,73,0.00,,,0.01,109.00,VWS V14.01,2013-10-05 20:11:00,
2013-10-05 15:13:00,80.1,71.1,29.80,ESE,111,8.1,11.5,74,0.00,,,0.01,74.00,VWS V14.01,2013-10-05 20:13:00,
2013-10-05 15:14:00,80.0,71.0,29.79,SE,128,12.6,12.6,74,0.00,,,0.01,60.00,VWS V14.01,2013-10-05 20:14:00,
2013-10-05 15:15:00,79.7,70.7,29.79,South,169,0.0,1.1,74,0.00,,,0.01,53.00,VWS V14.01,2013-10-05 20:15:00,
2013-10-05 15:17:00,79.4,70.4,29.79,South,182,5.8,8.1,74,0.00,,,0.01,51.00,VWS V14.01,2013-10-05 20:17:00,
2013-10-05 15:19:00,79.3,70.3,29.79,SE,131,3.4,8.1,74,0.00,,,0.01,42.00,VWS V14.01,2013-10-05 20:19:00,
2013-10-05 15:20:00,79.1,70.5,29.79,SE,133,2.3,8.1,75,0.00,,,0.01,30.00,VWS V14.01,2013-10-05 20:20:00,
2013-10-05 15:21:00,79.1,70.5,29.79,SE,133,2.3,8.1,75,0.00,,,0.01,30.00,VWS V14.01,2013-10-05 20:21:00,
2013-10-05 15:24:00,78.7,70.1,29.78,SE,134,3.4,12.6,75,0.00,,,0.01,19.00,VWS V14.01,2013-10-05 20:24:00,
2013-10-05 15:25:00,78.6,70.4,29.78,SE,140,4.6,12.6,76,0.00,,,0.01,16.00,VWS V14.01,2013-10-05 20:25:00,
2013-10-05 15:26:00,78.5,70.3,29.78,SE,131,6.9,6.9,76,0.00,,,0.01,12.00,VWS V14.01,2013-10-05 20:26:00,
2013-10-05 15:28:00,78.4,70.2,29.78,SE,140,13.8,13.8,76,0.00,,,0.01,11.00,VWS V14.01,2013-10-05 20:28:00,
2013-10-05 15:29:00,78.3,70.1,29.78,SE,132,4.6,13.8,76,0.00,,,0.01,9.00,VWS V14.01,2013-10-05 20:29:00,
2013-10-05 15:30:00,78.2,70.4,29.78,South,173,13.8,13.8,77,0.00,,,0.01,9.00,VWS V14.01,2013-10-05 20:30:00,
2013-10-05 15:31:00,78.1,70.3,29.78,ESE,113,9.2,13.8,77,0.00,,,0.01,11.00,VWS V14.01,2013-10-05 20:31:00,
2013-10-05 15:32:00,78.1,70.3,29.77,SSE,148,10.3,13.8,77,0.00,,,0.01,12.00,VWS V14.01,2013-10-05 20:32:00,
2013-10-05 15:33:00,78.0,70.6,29.77,SE,124,8.1,13.8,78,0.00,,,0.01,14.00,VWS V14.01,2013-10-05 20:33:00,
2013-10-05 15:34:00,77.9,70.5,29.77,SE,135,6.9,13.8,78,0.00,,,0.01,14.00,VWS V14.01,2013-10-05 20:34:00,
2013-10-05 15:35:00,77.8,70.8,29.77,South,184,8.1,9.2,79,0.00,,,0.01,14.00,VWS V14.01,2013-10-05 20:35:00,
2013-10-05 15:37:00,77.6,70.6,29.77,SSE,147,1.1,11.5,79,0.00,,,0.01,14.00,VWS V14.01,2013-10-05 20:37:00,
2013-10-05 15:38:00,77.5,70.5,29.77,SSE,153,6.9,11.5,79,0.00,,,0.01,14.00,VWS V14.01,2013-10-05 20:38:00,
2013-10-05 15:39:00,77.5,70.8,29.77,South,180,6.9,11.5,80,0.00,,,0.01,14.00,VWS V14.01,2013-10-05 20:39:00,
2013-10-05 15:40:00,77.4,70.8,29.78,SE,140,5.8,11.5,80,0.00,,,0.01,12.00,VWS V14.01,2013-10-05 20:40:00,
2013-10-05 15:43:00,77.1,70.5,29.78,SSE,167,5.8,11.5,80,0.00,,,0.01,11.00,VWS V14.01,2013-10-05 20:43:00,
2013-10-05 15:44:00,77.1,70.5,29.79,South,187,10.3,12.6,80,0.00,,,0.01,7.00,VWS V14.01,2013-10-05 20:44:00,
2013-10-05 15:45:00,77.0,70.7,29.79,SSE,159,10.3,14.9,81,0.00,,,0.01,7.00,VWS V14.01,2013-10-05 20:45:00,
2013-10-05 15:46:00,77.0,70.7,29.79,South,186,6.9,10.3,81,0.00,,,0.01,7.00,VWS V14.01,2013-10-05 20:46:00,
2013-10-05 15:49:00,76.9,70.6,29.80,South,179,5.8,10.3,81,0.00,,,0.01,5.00,VWS V14.01,2013-10-05 20:49:00,
2013-10-05 15:50:00,76.8,70.5,29.80,South,173,3.4,10.3,81,0.00,,,0.01,0.00,VWS V14.01,2013-10-05 20:50:00,
2013-10-05 15:51:00,76.8,70.9,29.81,South,185,13.8,13.8,82,0.00,,,0.01,0.00,VWS V14.01,2013-10-05 20:51:00,
2013-10-05 15:55:00,76.3,70.8,29.81,SSE,153,12.6,13.8,83,0.00,,,0.01,5.00,VWS V14.01,2013-10-05 20:55:00,
2013-10-05 15:56:00,76.1,70.6,29.81,South,191,4.6,11.5,83,0.00,,,0.01,5.00,VWS V14.01,2013-10-05 20:56:00,
2013-10-05 15:57:00,76.1,70.6,29.81,SSE,168,6.9,11.5,83,0.00,,,0.01,5.00,VWS V14.01,2013-10-05 20:57:00,
2013-10-05 16:00:00,75.3,70.5,29.82,SSE,167,6.9,11.5,85,0.01,,,0.02,0.00,VWS V14.01,2013-10-05 21:00:00,
2013-10-05 16:01:00,75.1,70.6,29.81,South,182,6.9,11.5,86,0.01,,,0.02,5.00,VWS V14.01,2013-10-05 21:01:00,
2013-10-05 16:02:00,74.8,70.3,29.82,South,172,5.8,11.5,86,0.02,,,0.03,5.00,VWS V14.01,2013-10-05 21:02:00,
2013-10-05 16:04:00,74.1,70.0,29.81,SSE,156,4.6,12.6,87,0.04,,,0.05,7.00,VWS V14.01,2013-10-05 21:04:00,
2013-10-05 16:05:00,74.0,70.2,29.81,South,190,0.0,12.6,88,0.05,,,0.06,7.00,VWS V14.01,2013-10-05 21:05:00,
2013-10-05 16:06:00,73.8,70.0,29.81,SSE,150,3.4,6.9,88,0.06,,,0.07,9.00,VWS V14.01,2013-10-05 21:06:00,
2013-10-05 16:07:00,73.5,70.1,29.81,South,177,8.1,11.5,89,0.08,,,0.09,9.00,VWS V14.01,2013-10-05 21:07:00,
2013-10-05 16:08:00,73.5,70.1,29.81,SSE,163,4.6,11.5,89,0.08,,,0.09,9.00,VWS V14.01,2013-10-05 21:08:00,
2013-10-05 16:09:00,73.3,69.9,29.81,South,180,2.3,11.5,89,0.09,,,0.10,9.00,VWS V14.01,2013-10-05 21:09:00,
2013-10-05 16:10:00,73.0,69.9,29.81,South,170,2.3,11.5,90,0.12,,,0.13,9.00,VWS V14.01,2013-10-05 21:10:00,
2013-10-05 16:12:00,72.7,69.6,29.81,South,188,4.6,6.9,90,0.14,,,0.15,11.00,VWS V14.01,2013-10-05 21:12:00,
2013-10-05 16:13:00,72.6,69.8,29.81,South,184,5.8,6.9,91,0.15,,,0.16,11.00,VWS V14.01,2013-10-05 21:13:00,
2013-10-05 16:14:00,72.5,69.7,29.82,South,177,1.1,6.9,91,0.15,,,0.16,9.00,VWS V14.01,2013-10-05 21:14:00,
2013-10-05 16:15:00,72.4,69.6,29.82,SSW,192,2.3,8.1,91,0.16,,,0.17,9.00,VWS V14.01,2013-10-05 21:15:00,
2013-10-05 16:16:00,72.4,69.9,29.82,South,178,8.1,8.1,92,0.16,,,0.17,9.00,VWS V14.01,2013-10-05 21:16:00,
2013-10-05 16:18:00,72.2,69.8,29.81,SSW,192,1.1,8.1,92,0.16,,,0.17,12.00,VWS V14.01,2013-10-05 21:18:00,
2013-10-05 16:20:00,72.0,69.6,29.81,South,185,8.1,10.3,92,0.17,,,0.18,11.00,VWS V14.01,2013-10-05 21:20:00,
2013-10-05 16:21:00,72.0,69.6,29.81,South,178,4.6,4.6,92,0.18,,,0.19,9.00,VWS V14.01,2013-10-05 21:21:00,
2013-10-05 16:23:00,71.8,69.3,29.82,South,175,0.0,8.1,92,0.21,,,0.22,9.00,VWS V14.01,2013-10-05 21:23:00,
2013-10-05 16:24:00,71.7,69.3,29.82,SSE,163,11.5,11.5,92,0.21,,,0.22,9.00,VWS V14.01,2013-10-05 21:24:00,
2013-10-05 16:25:00,71.5,69.1,29.82,SSE,154,6.9,11.5,92,0.22,,,0.23,9.00,VWS V14.01,2013-10-05 21:25:00,
2013-10-05 16:26:00,71.3,68.9,29.82,SSE,150,2.3,9.2,92,0.22,,,0.23,9.00,VWS V14.01,2013-10-05 21:26:00,
2013-10-05 16:27:00,71.2,68.8,29.82,SSE,152,2.3,9.2,92,0.22,,,0.23,9.00,VWS V14.01,2013-10-05 21:27:00,
2013-10-05 16:28:00,71.1,69.0,29.82,South,182,5.8,14.9,93,0.24,,,0.25,9.00,VWS V14.01,2013-10-05 21:28:00,
2013-10-05 16:29:00,71.0,68.9,29.82,South,177,1.1,14.9,93,0.24,,,0.25,9.00,VWS V14.01,2013-10-05 21:29:00,
2013-10-05 16:30:00,70.9,68.8,29.82,SSE,159,3.4,3.4,93,0.26,,,0.27,9.00,VWS V14.01,2013-10-05 21:30:00,
2013-10-05 16:31:00,70.8,68.7,29.82,SSE,148,4.6,6.9,93,0.27,,,0.28,9.00,VWS V14.01,2013-10-05 21:31:00,
2013-10-05 16:33:00,70.7,68.6,29.82,South,169,3.4,10.3,93,0.29,,,0.30,7.00,VWS V14.01,2013-10-05 21:33:00,
2013-10-05 16:35:00,70.4,68.3,29.81,South,187,3.4,5.8,93,0.32,,,0.33,7.00,VWS V14.01,2013-10-05 21:35:00,
2013-10-05 16:36:00,70.3,68.2,29.81,South,173,3.4,5.8,93,0.34,,,0.35,5.00,VWS V14.01,2013-10-05 21:36:00,
2013-10-05 16:37:00,70.2,68.1,29.81,South,173,2.3,5.8,93,0.34,,,0.35,5.00,VWS V14.01,2013-10-05 21:37:00,
2013-10-05 16:39:00,70.1,68.3,29.82,South,181,9.2,9.2,94,0.35,,,0.36,5.00,VWS V14.01,2013-10-05 21:39:00,
2013-10-05 16:40:00,70.1,68.3,29.82,South,175,4.6,9.2,94,0.36,,,0.37,7.00,VWS V14.01,2013-10-05 21:40:00,
2013-10-05 16:42:00,70.0,68.2,29.82,South,190,1.1,10.3,94,0.37,,,0.38,11.00,VWS V14.01,2013-10-05 21:42:00,
2013-10-05 16:44:00,69.9,68.1,29.82,SSE,153,4.6,10.3,94,0.40,,,0.41,11.00,VWS V14.01,2013-10-05 21:44:00,
2013-10-05 16:45:00,69.9,68.1,29.82,SSE,159,3.4,10.3,94,0.42,,,0.43,12.00,VWS V14.01,2013-10-05 21:45:00,
2013-10-05 16:48:00,69.8,68.0,29.81,SSE,164,1.1,6.9,94,0.47,,,0.48,12.00,VWS V14.01,2013-10-05 21:48:00,
2013-10-05 16:49:00,69.8,68.0,29.81,SSE,154,3.4,6.9,94,0.48,,,0.49,12.00,VWS V14.01,2013-10-05 21:49:00,
2013-10-05 16:50:00,69.7,68.2,29.81,SSE,155,3.4,3.4,95,0.53,,,0.54,12.00,VWS V14.01,2013-10-05 21:50:00,
2013-10-05 16:51:00,69.7,68.2,29.81,SSE,155,3.4,5.8,95,0.53,,,0.54,11.00,VWS V14.01,2013-10-05 21:51:00,
2013-10-05 16:52:00,69.7,68.2,29.81,SSE,155,6.9,6.9,95,0.54,,,0.55,12.00,VWS V14.01,2013-10-05 21:52:00,
2013-10-05 16:53:00,69.7,68.2,29.81,SSE,155,0.0,6.9,95,0.55,,,0.56,12.00,VWS V14.01,2013-10-05 21:53:00,
2013-10-05 16:54:00,69.6,68.1,29.81,SSE,152,2.3,6.9,95,0.56,,,0.57,11.00,VWS V14.01,2013-10-05 21:54:00,
2013-10-05 16:55:00,69.6,68.1,29.81,SSE,152,2.3,6.9,95,0.58,,,0.59,11.00,VWS V14.01,2013-10-05 21:55:00,
2013-10-05 16:56:00,69.6,68.1,29.80,SSE,152,2.3,3.4,95,0.60,,,0.61,11.00,VWS V14.01,2013-10-05 21:56:00,
2013-10-05 16:57:00,69.6,68.1,29.80,SSE,152,0.0,3.4,95,0.61,,,0.62,9.00,VWS V14.01,2013-10-05 21:57:00,
2013-10-05 16:58:00,69.5,68.0,29.80,SSE,167,1.1,6.9,95,0.63,,,0.64,9.00,VWS V14.01,2013-10-05 21:58:00,
2013-10-05 17:00:00,69.5,68.0,29.81,SSE,152,6.9,6.9,95,0.66,,,0.67,7.00,VWS V14.01,2013-10-05 22:00:00,
2013-10-05 17:02:00,69.5,68.0,29.81,South,182,4.6,6.9,95,0.67,,,0.69,5.00,VWS V14.01,2013-10-05 22:02:00,
2013-10-05 17:04:00,69.4,67.9,29.82,SSE,160,0.0,6.9,95,0.69,,,0.71,5.00,VWS V14.01,2013-10-05 22:04:00,
2013-10-05 17:05:00,69.4,67.9,29.82,SSE,160,4.6,6.9,95,0.71,,,0.73,5.00,VWS V14.01,2013-10-05 22:05:00,
2013-10-05 17:07:00,69.4,67.9,29.81,SSE,160,0.0,4.6,95,0.73,,,0.79,5.00,VWS V14.01,2013-10-05 22:07:00,
2013-10-05 17:08:00,69.4,67.9,29.81,SSE,160,1.1,4.6,95,0.73,,,0.79,5.00,VWS V14.01,2013-10-05 22:08:00,
2013-10-05 17:09:00,69.2,67.7,29.81,SSE,159,4.6,4.6,95,0.80,,,0.86,5.00,VWS V14.01,2013-10-05 22:09:00,
2013-10-05 17:10:00,69.2,67.7,29.81,SSE,159,4.6,4.6,95,0.81,,,0.87,5.00,VWS V14.01,2013-10-05 22:10:00,
2013-10-05 17:11:00,69.2,67.7,29.81,SSE,157,1.1,4.6,95,0.76,,,0.89,7.00,VWS V14.01,2013-10-05 22:11:00,
2013-10-05 17:13:00,69.1,67.6,29.81,SSE,165,1.1,8.1,95,0.79,,,0.92,9.00,VWS V14.01,2013-10-05 22:13:00,
2013-10-05 17:14:00,69.1,67.6,29.81,SSE,166,4.6,8.1,95,0.80,,,0.93,9.00,VWS V14.01,2013-10-05 22:14:00,
2013-10-05 17:15:00,69.1,67.6,29.81,SSE,167,4.6,8.1,95,0.81,,,0.94,9.00,VWS V14.01,2013-10-05 22:15:00,
2013-10-05 17:16:00,69.0,67.5,29.82,South,169,3.4,6.9,95,0.78,,,0.95,9.00,VWS V14.01,2013-10-05 22:16:00,
2013-10-05 17:18:00,68.9,67.4,29.82,South,178,9.2,9.2,95,0.81,,,0.98,7.00,VWS V14.01,2013-10-05 22:18:00,
2013-10-05 17:19:00,68.8,67.3,29.82,SE,146,6.9,10.3,95,0.82,,,0.99,7.00,VWS V14.01,2013-10-05 22:19:00,
2013-10-05 17:20:00,68.9,67.4,29.82,SE,145,5.8,10.3,95,0.83,,,1.00,7.00,VWS V14.01,2013-10-05 22:20:00,
2013-10-05 17:21:00,68.8,67.3,29.82,SE,141,5.8,9.2,95,0.85,,,1.03,5.00,VWS V14.01,2013-10-05 22:21:00,
2013-10-05 17:22:00,68.7,67.2,29.82,SSE,161,5.8,10.3,95,0.86,,,1.04,5.00,VWS V14.01,2013-10-05 22:22:00,
2013-10-05 17:23:00,68.6,67.1,29.82,SE,139,5.8,10.3,95,0.90,,,1.08,5.00,VWS V14.01,2013-10-05 22:23:00,
2013-10-05 17:24:00,68.5,67.0,29.82,SSE,165,4.6,10.3,95,0.91,,,1.09,5.00,VWS V14.01,2013-10-05 22:24:00,
2013-10-05 17:25:00,68.4,66.9,29.81,South,178,3.4,10.3,95,0.93,,,1.11,0.00,VWS V14.01,2013-10-05 22:25:00,
2013-10-05 17:26:00,68.3,66.8,29.81,SW,227,4.6,6.9,95,0.90,,,1.13,0.00,VWS V14.01,2013-10-05 22:26:00,
2013-10-05 17:27:00,68.2,66.7,29.81,South,175,0.0,8.1,95,0.91,,,1.14,0.00,VWS V14.01,2013-10-05 22:27:00,
2013-10-05 17:37:00,68.0,66.5,29.81,South,180,4.6,11.5,95,0.96,,,1.19,0.00,VWS V14.01,2013-10-05 22:37:00,
2013-10-05 17:38:00,67.5,66.0,29.81,SSE,147,3.4,4.6,95,0.92,,,1.19,0.00,VWS V14.01,2013-10-05 22:38:00,
2013-10-05 17:42:00,67.6,66.1,29.80,South,177,6.9,8.1,95,0.83,,,1.20,0.00,VWS V14.01,2013-10-05 22:42:00,
2013-10-05 17:43:00,67.6,66.4,29.80,South,184,3.4,8.1,96,0.83,,,1.20,0.00,VWS V14.01,2013-10-05 22:43:00,
2013-10-05 17:44:00,67.6,66.4,29.81,South,173,5.8,8.1,96,0.84,,,1.21,0.00,VWS V14.01,2013-10-05 22:44:00,
2013-10-05 17:46:00,67.6,66.4,29.81,South,178,5.8,5.8,96,0.78,,,1.21,0.00,VWS V14.01,2013-10-05 22:46:00,
2013-10-05 17:47:00,67.6,66.4,29.81,SSE,147,4.6,11.5,96,0.79,,,1.22,0.00,VWS V14.01,2013-10-05 22:47:00,
2013-10-05 17:48:00,67.6,66.4,29.81,South,169,4.6,11.5,96,0.79,,,1.22,0.00,VWS V14.01,2013-10-05 22:48:00,
2013-10-05 17:49:00,67.6,66.4,29.81,SSE,147,3.4,11.5,96,0.82,,,1.25,0.00,VWS V14.01,2013-10-05 22:49:00,
2013-10-05 17:51:00,67.4,65.9,29.81,SSE,148,3.4,6.9,95,0.72,,,1.25,0.00,VWS V14.01,2013-10-05 22:51:00,
2013-10-05 17:53:00,67.3,65.8,29.81,SSE,162,0.0,9.2,95,0.73,,,1.26,0.00,VWS V14.01,2013-10-05 22:53:00,
2013-10-05 17:54:00,67.3,65.8,29.81,SE,132,5.8,9.2,95,0.73,,,1.26,0.00,VWS V14.01,2013-10-05 22:54:00,
2013-10-05 17:55:00,67.4,66.2,29.81,SSE,164,1.1,9.2,96,0.73,,,1.26,0.00,VWS V14.01,2013-10-05 22:55:00,
2013-10-05 17:56:00,67.4,66.2,29.81,South,182,3.4,9.2,96,0.68,,,1.27,0.00,VWS V14.01,2013-10-05 22:56:00,
2013-10-05 17:59:00,67.6,66.4,29.81,South,170,3.4,9.2,96,0.69,,,1.28,0.00,VWS V14.01,2013-10-05 22:59:00,
2013-10-05 18:00:00,67.6,66.4,29.81,SSE,159,4.6,9.2,96,0.69,,,1.28,0.00,VWS V14.01,2013-10-05 23:00:00,
2013-10-05 18:03:00,67.7,66.5,29.81,South,169,5.8,9.2,96,0.62,,,1.29,0.00,VWS V14.01,2013-10-05 23:03:00,
2013-10-05 18:04:00,67.8,66.6,29.81,South,178,3.4,9.2,96,0.62,,,1.29,0.00,VWS V14.01,2013-10-05 23:04:00,
2013-10-05 18:08:00,67.8,66.6,29.81,SSE,159,1.1,5.8,96,0.58,,,1.31,0.00,VWS V14.01,2013-10-05 23:08:00,
2013-10-05 18:09:00,67.8,66.6,29.81,SSE,160,3.4,5.8,96,0.59,,,1.32,0.00,VWS V14.01,2013-10-05 23:09:00,
2013-10-05 18:10:00,67.8,66.6,29.81,SSE,160,2.3,5.8,96,0.59,,,1.32,0.00,VWS V14.01,2013-10-05 23:10:00,
2013-10-05 18:11:00,67.7,66.5,29.81,SSE,159,1.1,3.4,96,0.45,,,1.32,0.00,VWS V14.01,2013-10-05 23:11:00,
2013-10-05 18:14:00,67.7,66.5,29.81,SSE,159,1.1,3.4,96,0.46,,,1.33,0.00,VWS V14.01,2013-10-05 23:14:00,
2013-10-05 18:15:00,67.7,66.5,29.81,SSE,159,0.0,3.4,96,0.46,,,1.33,0.00,VWS V14.01,2013-10-05 23:15:00,
2013-10-05 18:16:00,67.7,66.5,29.81,SSE,159,1.1,2.3,96,0.39,,,1.33,0.00,VWS V14.01,2013-10-05 23:16:00,
2013-10-05 18:20:00,67.8,66.6,29.81,South,178,0.0,6.9,96,0.39,,,1.33,0.00,VWS V14.01,2013-10-05 23:20:00,
2013-10-05 18:21:00,67.8,66.6,29.81,South,178,2.3,3.4,96,0.32,,,1.33,0.00,VWS V14.01,2013-10-05 23:21:00,
2013-10-05 18:25:00,67.8,66.6,29.81,South,178,4.6,4.6,96,0.32,,,1.33,0.00,VWS V14.01,2013-10-05 23:25:00,
2013-10-05 18:26:00,67.7,66.5,29.81,SSE,164,6.9,6.9,96,0.22,,,1.33,0.00,VWS V14.01,2013-10-05 23:26:00,
2013-10-05 18:27:00,67.7,66.5,29.81,South,180,3.4,8.1,96,0.22,,,1.33,0.00,VWS V14.01,2013-10-05 23:27:00,
2013-10-05 18:31:00,67.4,66.2,29.81,SSE,153,1.1,1.1,96,0.14,,,1.33,0.00,VWS V14.01,2013-10-05 23:31:00,
2013-10-05 18:32:00,67.4,66.2,29.81,SSE,153,0.0,2.3,96,0.14,,,1.33,0.00,VWS V14.01,2013-10-05 23:32:00,
2013-10-05 18:36:00,67.0,65.8,29.81,SSE,167,4.6,5.8,96,0.13,,,1.33,0.00,VWS V14.01,2013-10-05 23:36:00,
2013-10-05 18:37:00,67.0,65.8,29.81,SSW,192,8.1,8.1,96,0.13,,,1.33,0.00,VWS V14.01,2013-10-05 23:37:00,
2013-10-05 18:39:00,66.8,65.6,29.81,SE,145,2.3,8.1,96,0.13,,,1.33,0.00,VWS V14.01,2013-10-05 23:39:00,
2013-10-05 18:40:00,66.7,65.5,29.81,South,171,8.1,9.2,96,0.13,,,1.33,0.00,VWS V14.01,2013-10-05 23:40:00,
2013-10-05 18:42:00,66.6,65.4,29.81,SSE,159,4.6,10.3,96,0.13,,,1.33,0.00,VWS V14.01,2013-10-05 23:42:00,
2013-10-05 18:43:00,66.5,65.3,29.81,SSE,159,3.4,10.3,96,0.13,,,1.33,0.00,VWS V14.01,2013-10-05 23:43:00,
2013-10-05 18:44:00,66.5,65.3,29.81,South,174,6.9,10.3,96,0.13,,,1.33,0.00,VWS V14.01,2013-10-05 23:44:00,
2013-10-05 18:47:00,66.3,65.1,29.81,SE,142,4.6,8.1,96,0.12,,,1.33,0.00,VWS V14.01,2013-10-05 23:47:00,
2013-10-05 18:48:00,66.3,65.1,29.81,SSE,149,5.8,8.1,96,0.12,,,1.33,0.00,VWS V14.01,2013-10-05 23:48:00,
2013-10-05 18:49:00,66.2,65.0,29.81,South,175,6.9,8.1,96,0.12,,,1.33,0.00,VWS V14.01,2013-10-05 23:49:00,
2013-10-05 18:50:00,66.1,64.6,29.81,SSE,150,4.6,9.2,95,0.12,,,1.33,0.00,VWS V14.01,2013-10-05 23:50:00,
2013-10-05 18:51:00,66.1,64.6,29.81,South,169,4.6,6.9,95,0.08,,,1.33,0.00,VWS V14.01,2013-10-05 23:51:00,
2013-10-05 18:54:00,65.9,64.7,29.80,SE,134,9.2,9.2,96,0.08,,,1.33,0.00,VWS V14.01,2013-10-05 23:54:00,
2013-10-05 18:55:00,65.9,64.7,29.80,SE,134,3.4,9.2,96,0.08,,,1.33,0.00,VWS V14.01,2013-10-05 23:55:00,
2013-10-05 18:58:00,65.8,64.6,29.80,SSE,167,3.4,6.9,96,0.07,,,1.33,0.00,VWS V14.01,2013-10-05 23:58:00,
2013-10-05 18:59:00,65.8,64.6,29.80,SSE,148,5.8,6.9,96,0.07,,,1.33,0.00,VWS V14.01,2013-10-05 23:59:00,
2013-10-05 19:00:00,65.8,64.6,29.81,SSE,151,5.8,6.9,96,0.07,,,1.33,0.00,VWS V14.01,2013-10-06 00:00:00,
2013-10-05 19:01:00,65.8,64.6,29.81,SE,141,2.3,6.9,96,0.05,,,1.33,0.00,VWS V14.01,2013-10-06 00:01:00,
2013-10-05 19:03:00,65.8,64.6,29.81,SSE,148,4.6,6.9,96,0.05,,,1.33,0.00,VWS V14.01,2013-10-06 00:03:00,
2013-10-05 19:05:00,65.8,64.6,29.81,SSE,148,4.6,8.1,96,0.05,,,1.33,0.00,VWS V14.01,2013-10-06 00:05:00,
2013-10-05 19:06:00,65.8,64.6,29.81,SSE,161,5.8,5.8,96,0.04,,,1.33,0.00,VWS V14.01,2013-10-06 00:06:00,
2013-10-05 19:07:00,65.9,64.7,29.81,SSE,150,4.6,9.2,96,0.04,,,1.33,0.00,VWS V14.01,2013-10-06 00:07:00,
2013-10-05 19:08:00,65.9,64.7,29.81,SSE,150,1.1,9.2,96,0.04,,,1.33,0.00,VWS V14.01,2013-10-06 00:08:00,
2013-10-05 19:10:00,66.0,64.8,29.81,SSE,151,3.4,9.2,96,0.04,,,1.33,0.00,VWS V14.01,2013-10-06 00:10:00,
2013-10-05 19:11:00,66.0,64.8,29.81,South,183,8.1,8.1,96,0.01,,,1.33,0.00,VWS V14.01,2013-10-06 00:11:00,
2013-10-05 19:13:00,66.1,64.9,29.81,SSE,154,2.3,9.2,96,0.01,,,1.33,0.00,VWS V14.01,2013-10-06 00:13:00,
2013-10-05 19:16:00,66.1,64.9,29.81,SSE,163,4.6,4.6,96,0.00,,,1.33,0.00,VWS V14.01,2013-10-06 00:16:00,
2013-10-05 19:17:00,66.2,65.0,29.81,South,191,10.3,10.3,96,0.00,,,1.33,0.00,VWS V14.01,2013-10-06 00:17:00,
2013-10-05 19:18:00,66.2,65.0,29.80,SE,132,3.4,10.3,96,0.00,,,1.33,0.00,VWS V14.01,2013-10-06 00:18:00,
2013-10-05 19:19:00,66.2,65.0,29.81,SSE,157,5.8,10.3,96,0.00,,,1.33,0.00,VWS V14.01,2013-10-06 00:19:00,
2013-10-05 19:22:00,66.4,65.2,29.80,SE,143,0.0,4.6,96,0.00,,,1.33,0.00,VWS V14.01,2013-10-06 00:22:00,
2013-10-05 19:23:00,66.5,65.3,29.80,SSW,194,8.1,9.2,96,0.00,,,1.33,0.00,VWS V14.01,2013-10-06 00:23:00,
2013-10-05 19:24:00,66.5,65.3,29.80,SE,130,4.6,10.3,96,0.00,,,1.33,0.00,VWS V14.01,2013-10-06 00:24:00,
2013-10-05 19:25:00,66.5,65.3,29.80,South,175,6.9,9.2,96,0.00,,,1.33,0.00,VWS V14.01,2013-10-06 00:25:00,
2013-10-05 19:27:00,66.6,65.4,29.80,South,182,8.1,9.2,96,0.00,,,1.33,0.00,VWS V14.01,2013-10-06 00:27:00,
2013-10-05 19:29:00,66.8,65.6,29.80,SSE,163,5.8,10.3,96,0.00,,,1.33,0.00,VWS V14.01,2013-10-06 00:29:00,
2013-10-05 19:30:00,66.9,65.7,29.80,SSE,162,5.8,10.3,96,0.00,,,1.33,0.00,VWS V14.01,2013-10-06 00:30:00,
2013-10-05 19:31:00,67.0,65.8,29.80,South,189,5.8,6.9,96,0.00,,,1.33,0.00,VWS V14.01,2013-10-06 00:31:00,
2013-10-05 19:34:00,67.1,66.2,29.80,South,175,9.2,19.5,97,0.00,,,1.33,0.00,VWS V14.01,2013-10-06 00:34:00,
2013-10-05 19:35:00,67.1,66.2,29.79,SE,138,6.9,19.5,97,0.00,,,1.33,0.00,VWS V14.01,2013-10-06 00:35:00,
2013-10-05 19:36:00,67.1,66.2,29.79,SSE,159,3.4,12.6,97,0.00,,,1.33,0.00,VWS V14.01,2013-10-06 00:36:00,
2013-10-05 19:38:00,67.1,66.2,29.79,SE,145,6.9,12.6,97,0.00,,,1.33,0.00,VWS V14.01,2013-10-06 00:38:00,
2013-10-05 19:39:00,67.1,65.9,29.78,SSE,161,11.5,12.6,96,0.00,,,1.33,0.00,VWS V14.01,2013-10-06 00:39:00,
2013-10-05 19:40:00,67.1,65.9,29.79,South,179,4.6,6.9,96,0.00,,,1.33,0.00,VWS V14.01,2013-10-06 00:40:00,
2013-10-05 19:41:00,67.1,65.9,29.79,SSW,194,5.8,6.9,96,0.00,,,1.33,0.00,VWS V14.01,2013-10-06 00:41:00,
2013-10-05 19:42:00,67.1,65.9,29.79,SSW,192,6.9,8.1,96,0.00,,,1.33,0.00,VWS V14.01,2013-10-06 00:42:00,
2013-10-05 19:43:00,67.1,65.9,29.79,SSE,163,3.4,9.2,96,0.00,,,1.33,0.00,VWS V14.01,2013-10-06 00:43:00,
2013-10-05 19:44:00,67.1,65.9,29.79,South,171,4.6,11.5,96,0.00,,,1.33,0.00,VWS V14.01,2013-10-06 00:44:00,
2013-10-05 19:45:00,67.1,65.9,29.79,South,175,6.9,8.1,96,0.00,,,1.33,0.00,VWS V14.01,2013-10-06 00:45:00,
2013-10-05 19:47:00,67.1,65.9,29.79,South,174,1.1,8.1,96,0.00,,,1.33,0.00,VWS V14.01,2013-10-06 00:47:00,
2013-10-05 19:49:00,67.1,65.9,29.79,SSE,165,2.3,8.1,96,0.00,,,1.33,0.00,VWS V14.01,2013-10-06 00:49:00,
2013-10-05 19:50:00,67.1,65.9,29.79,SSE,167,6.9,8.1,96,0.00,,,1.33,0.00,VWS V14.01,2013-10-06 00:50:00,
2013-10-05 19:51:00,67.1,65.9,29.78,SSE,150,4.6,4.6,96,0.00,,,1.33,0.00,VWS V14.01,2013-10-06 00:51:00,
2013-10-05 19:53:00,67.2,66.0,29.79,SSE,165,2.3,11.5,96,0.00,,,1.33,0.00,VWS V14.01,2013-10-06 00:53:00,
2013-10-05 19:55:00,67.2,66.0,29.79,South,178,12.6,12.6,96,0.00,,,1.33,0.00,VWS V14.01,2013-10-06 00:55:00,
2013-10-05 19:56:00,67.2,66.0,29.79,South,179,5.8,12.6,96,0.00,,,1.33,0.00,VWS V14.01,2013-10-06 00:56:00,
2013-10-05 19:59:00,67.2,66.0,29.79,SSE,160,5.8,12.6,96,0.00,,,1.33,0.00,VWS V14.01,2013-10-06 00:59:00,
2013-10-05 20:00:00,67.2,66.0,29.79,South,173,8.1,8.1,96,0.00,,,1.33,0.00,VWS V14.01,2013-10-06 01:00:00,
2013-10-05 20:01:00,67.2,66.0,29.79,South,182,9.2,9.2,96,0.00,,,1.33,0.00,VWS V14.01,2013-10-06 01:01:00,
2013-10-05 20:02:00,67.2,66.0,29.79,SSW,197,4.6,9.2,96,0.00,,,1.33,0.00,VWS V14.01,2013-10-06 01:02:00,
2013-10-05 20:04:00,67.3,66.1,29.80,South,178,3.4,9.2,96,0.00,,,1.33,0.00,VWS V14.01,2013-10-06 01:04:00,
2013-10-05 20:06:00,67.4,66.2,29.80,SSE,152,5.8,5.8,96,0.00,,,1.33,0.00,VWS V14.01,2013-10-06 01:06:00,
2013-10-05 20:07:00,67.4,66.2,29.80,SSW,197,6.9,10.3,96,0.00,,,1.33,0.00,VWS V14.01,2013-10-06 01:07:00,
2013-10-05 20:10:00,67.5,66.3,29.81,SSW,192,6.9,11.5,96,0.00,,,1.33,0.00,VWS V14.01,2013-10-06 01:10:00,
2013-10-05 20:11:00,67.6,66.4,29.81,South,169,9.2,9.2,96,0.00,,,1.33,0.00,VWS V14.01,2013-10-06 01:11:00,
2013-10-05 20:12:00,67.6,66.4,29.81,South,173,6.9,9.2,96,0.00,,,1.33,0.00,VWS V14.01,2013-10-06 01:12:00,
2013-10-05 20:13:00,67.6,66.4,29.81,SSE,162,5.8,9.2,96,0.00,,,1.33,0.00,VWS V14.01,2013-10-06 01:13:00,
2013-10-05 20:14:00,67.7,66.5,29.81,South,181,4.6,9.2,96,0.00,,,1.33,0.00,VWS V14.01,2013-10-06 01:14:00,
2013-10-05 20:16:00,67.7,66.5,29.81,SSE,167,6.9,10.3,96,0.00,,,1.33,0.00,VWS V14.01,2013-10-06 01:16:00,
2013-10-05 20:17:00,67.7,66.5,29.81,SW,214,4.6,10.3,96,0.00,,,1.33,0.00,VWS V14.01,2013-10-06 01:17:00,
2013-10-05 20:18:00,67.8,66.6,29.81,SSW,202,3.4,10.3,96,0.00,,,1.33,0.00,VWS V14.01,2013-10-06 01:18:00,
2013-10-05 20:20:00,67.8,66.6,29.81,SSW,196,5.8,10.3,96,0.00,,,1.33,0.00,VWS V14.01,2013-10-06 01:20:00,
2013-10-05 20:23:00,67.8,66.6,29.82,SW,217,6.9,8.1,96,0.00,,,1.33,0.00,VWS V14.01,2013-10-06 01:23:00,
2013-10-05 20:24:00,67.9,66.7,29.82,SSW,197,3.4,8.1,96,0.00,,,1.33,0.00,VWS V14.01,2013-10-06 01:24:00,
2013-10-05 20:25:00,67.9,66.7,29.82,SSW,193,5.8,8.1,96,0.00,,,1.33,0.00,VWS V14.01,2013-10-06 01:25:00,
2013-10-05 20:26:00,67.9,66.7,29.82,South,190,1.1,4.6,96,0.00,,,1.33,0.00,VWS V14.01,2013-10-06 01:26:00,
2013-10-05 20:28:00,67.9,66.7,29.81,SSE,167,3.4,9.2,96,0.00,,,1.33,0.00,VWS V14.01,2013-10-06 01:28:00,
2013-10-05 20:30:00,67.9,66.7,29.81,SSE,166,2.3,9.2,96,0.00,,,1.33,0.00,VWS V14.01,2013-10-06 01:30:00,
2013-10-05 20:31:00,67.9,66.7,29.81,South,182,8.1,8.1,96,0.00,,,1.33,0.00,VWS V14.01,2013-10-06 01:31:00,
2013-10-05 20:32:00,67.9,66.7,29.81,South,188,5.8,8.1,96,0.00,,,1.33,0.00,VWS V14.01,2013-10-06 01:32:00,
2013-10-05 20:33:00,67.9,66.7,29.81,South,182,5.8,8.1,96,0.00,,,1.33,0.00,VWS V14.01,2013-10-06 01:33:00,
2013-10-05 20:35:00,67.9,66.7,29.81,SSE,167,0.0,8.1,96,0.00,,,1.33,0.00,VWS V14.01,2013-10-06 01:35:00,
2013-10-05 20:36:00,67.9,66.7,29.81,SSE,167,0.0,4.6,96,0.00,,,1.33,0.00,VWS V14.01,2013-10-06 01:36:00,
2013-10-05 20:38:00,68.0,66.8,29.81,SSE,167,2.3,5.8,96,0.00,,,1.33,0.00,VWS V14.01,2013-10-06 01:38:00,
2013-10-05 20:39:00,68.0,66.8,29.81,SSE,167,2.3,5.8,96,0.00,,,1.33,0.00,VWS V14.01,2013-10-06 01:39:00,
2013-10-05 20:41:00,68.0,66.8,29.81,SSE,165,3.4,3.4,96,0.00,,,1.33,0.00,VWS V14.01,2013-10-06 01:41:00,
2013-10-05 20:42:00,68.0,66.8,29.81,SSE,163,3.4,5.8,96,0.00,,,1.33,0.00,VWS V14.01,2013-10-06 01:42:00,
2013-10-05 20:43:00,68.0,66.8,29.81,SSE,163,0.0,5.8,96,0.00,,,1.33,0.00,VWS V14.01,2013-10-06 01:43:00,
2013-10-05 20:44:00,68.1,66.9,29.81,SSE,163,0.0,5.8,96,0.00,,,1.33,0.00,VWS V14.01,2013-10-06 01:44:00,
2013-10-05 20:45:00,68.1,66.9,29.82,SSE,163,3.4,5.8,96,0.00,,,1.33,0.00,VWS V14.01,2013-10-06 01:45:00,
2013-10-05 20:47:00,68.1,66.9,29.81,SSE,163,0.0,5.8,96,0.00,,,1.33,0.00,VWS V14.01,2013-10-06 01:47:00,
2013-10-05 20:48:00,68.1,66.9,29.82,SSE,165,4.6,6.9,96,0.00,,,1.33,0.00,VWS V14.01,2013-10-06 01:48:00,
2013-10-05 20:49:00,68.1,66.9,29.82,SSE,165,3.4,6.9,96,0.00,,,1.33,0.00,VWS V14.01,2013-10-06 01:49:00,
2013-10-05 20:50:00,68.1,66.9,29.82,SSE,150,6.9,6.9,96,0.00,,,1.33,0.00,VWS V14.01,2013-10-06 01:50:00,
2013-10-05 20:53:00,68.1,66.9,29.82,South,170,4.6,8.1,96,0.00,,,1.33,0.00,VWS V14.01,2013-10-06 01:53:00,
2013-10-05 20:54:00,68.1,66.9,29.82,South,172,6.9,8.1,96,0.00,,,1.33,0.00,VWS V14.01,2013-10-06 01:54:00,
2013-10-05 20:57:00,68.1,66.9,29.82,South,180,5.8,5.8,96,0.00,,,1.33,0.00,VWS V14.01,2013-10-06 01:57:00,
2013-10-05 20:58:00,68.1,66.9,29.82,South,173,9.2,9.2,96,0.00,,,1.33,0.00,VWS V14.01,2013-10-06 01:58:00,
2013-10-05 20:59:00,68.1,66.9,29.82,South,173,5.8,10.3,96,0.00,,,1.33,0.00,VWS V14.01,2013-10-06 01:59:00,
2013-10-05 21:00:00,68.2,67.0,29.82,SSE,167,4.6,10.3,96,0.00,,,1.33,0.00,VWS V14.01,2013-10-06 02:00:00,
2013-10-05 21:02:00,68.2,67.0,29.82,South,169,5.8,6.9,96,0.00,,,1.33,0.00,VWS V14.01,2013-10-06 02:02:00,
2013-10-05 21:04:00,68.2,67.0,29.82,South,184,5.8,6.9,96,0.00,,,1.33,0.00,VWS V14.01,2013-10-06 02:04:00,
2013-10-05 21:05:00,68.2,67.0,29.82,South,184,4.6,6.9,96,0.00,,,1.33,0.00,VWS V14.01,2013-10-06 02:05:00,
2013-10-05 21:07:00,68.2,67.0,29.82,South,184,4.6,5.8,96,0.00,,,1.33,0.00,VWS V14.01,2013-10-06 02:07:00,
2013-10-05 21:08:00,68.2,67.0,29.82,SSE,152,4.6,5.8,96,0.00,,,1.33,0.00,VWS V14.01,2013-10-06 02:08:00,
2013-10-05 21:10:00,68.3,67.1,29.82,South,178,4.6,8.1,96,0.00,,,1.33,0.00,VWS V14.01,2013-10-06 02:10:00,
2013-10-05 21:11:00,68.3,67.1,29.82,SSW,204,1.1,3.4,96,0.00,,,1.33,0.00,VWS V14.01,2013-10-06 02:11:00,
2013-10-05 21:13:00,68.3,67.1,29.82,South,182,5.8,6.9,96,0.00,,,1.33,0.00,VWS V14.01,2013-10-06 02:13:00,
2013-10-05 21:14:00,68.3,67.1,29.82,South,180,2.3,6.9,96,0.00,,,1.33,0.00,VWS V14.01,2013-10-06 02:14:00,
2013-10-05 21:15:00,68.3,67.1,29.82,SSE,161,0.0,6.9,96,0.00,,,1.33,0.00,VWS V14.01,2013-10-06 02:15:00,
2013-10-05 21:16:00,68.3,67.1,29.82,SSE,161,3.4,4.6,96,0.00,,,1.33,0.00,VWS V14.01,2013-10-06 02:16:00,
2013-10-05 21:19:00,68.3,67.1,29.82,SSE,161,0.0,4.6,96,0.00,,,1.33,0.00,VWS V14.01,2013-10-06 02:19:00,
2013-10-05 21:21:00,68.3,67.1,29.81,SSE,161,1.1,3.4,96,0.00,,,1.33,0.00,VWS V14.01,2013-10-06 02:21:00,
2013-10-05 21:22:00,68.3,67.1,29.81,SSE,161,3.4,4.6,96,0.00,,,1.33,0.00,VWS V14.01,2013-10-06 02:22:00,
2013-10-05 21:23:00,68.3,67.1,29.81,South,169,0.0,5.8,96,0.00,,,1.33,0.00,VWS V14.01,2013-10-06 02:23:00,
2013-10-05 21:24:00,68.4,67.2,29.82,SSW,202,6.9,6.9,96,0.00,,,1.33,0.00,VWS V14.01,2013-10-06 02:24:00,
2013-10-05 21:26:00,68.4,67.2,29.81,South,182,4.6,4.6,96,0.00,,,1.33,0.00,VWS V14.01,2013-10-06 02:26:00,
2013-10-05 21:27:00,68.4,67.2,29.81,South,182,4.6,4.6,96,0.00,,,1.33,0.00,VWS V14.01,2013-10-06 02:27:00,
2013-10-05 21:28:00,68.4,67.2,29.81,SSE,150,4.6,5.8,96,0.00,,,1.33,0.00,VWS V14.01,2013-10-06 02:28:00,
2013-10-05 21:31:00,68.5,67.3,29.81,South,173,1.1,3.4,96,0.00,,,1.33,0.00,VWS V14.01,2013-10-06 02:31:00,
2013-10-05 21:32:00,68.5,67.3,29.81,South,173,1.1,4.6,96,0.00,,,1.33,0.00,VWS V14.01,2013-10-06 02:32:00,
2013-10-05 21:33:00,68.5,67.3,29.81,South,173,8.1,8.1,96,0.00,,,1.33,0.00,VWS V14.01,2013-10-06 02:33:00,
2013-10-05 21:35:00,68.5,67.3,29.81,SSW,207,3.4,8.1,96,0.00,,,1.33,0.00,VWS V14.01,2013-10-06 02:35:00,
2013-10-05 21:37:00,68.5,67.3,29.81,South,182,3.4,9.2,96,0.00,,,1.33,0.00,VWS V14.01,2013-10-06 02:37:00,
2013-10-05 21:38:00,68.5,67.3,29.81,South,180,3.4,9.2,96,0.00,,,1.33,0.00,VWS V14.01,2013-10-06 02:38:00,
2013-10-05 21:39:00,68.5,67.3,29.82,SSW,192,2.3,9.2,96,0.00,,,1.33,0.00,VWS V14.01,2013-10-06 02:39:00,
2013-10-05 21:41:00,68.5,67.3,29.82,South,173,4.6,6.9,96,0.00,,,1.33,0.00,VWS V14.01,2013-10-06 02:41:00,
2013-10-05 21:42:00,68.5,67.3,29.82,South,189,8.1,12.6,96,0.00,,,1.33,0.00,VWS V14.01,2013-10-06 02:42:00,
2013-10-05 21:43:00,68.5,67.3,29.81,SSE,165,5.8,12.6,96,0.00,,,1.33,0.00,VWS V14.01,2013-10-06 02:43:00,
2013-10-05 21:46:00,68.5,67.3,29.81,South,175,2.3,4.6,96,0.00,,,1.33,0.00,VWS V14.01,2013-10-06 02:46:00,
2013-10-05 21:47:00,68.5,67.3,29.81,SSE,168,4.6,8.1,96,0.00,,,1.33,0.00,VWS V14.01,2013-10-06 02:47:00,
2013-10-05 21:48:00,68.5,67.3,29.81,South,169,2.3,8.1,96,0.00,,,1.33,0.00,VWS V14.01,2013-10-06 02:48:00,
2013-10-05 21:52:00,68.4,67.2,29.80,South,175,3.4,8.1,96,0.00,,,1.33,0.00,VWS V14.01,2013-10-06 02:52:00,
2013-10-05 21:53:00,68.3,67.1,29.80,South,175,2.3,8.1,96,0.00,,,1.33,0.00,VWS V14.01,2013-10-06 02:53:00,
2013-10-05 21:56:00,68.3,67.1,29.80,South,171,0.0,2.3,96,0.00,,,1.33,0.00,VWS V14.01,2013-10-06 02:56:00,
2013-10-05 21:57:00,68.3,67.1,29.80,South,171,1.1,2.3,96,0.00,,,1.33,0.00,VWS V14.01,2013-10-06 02:57:00,
2013-10-05 21:58:00,68.3,67.1,29.80,South,171,2.3,4.6,96,0.00,,,1.33,0.00,VWS V14.01,2013-10-06 02:58:00,
2013-10-05 22:01:00,68.2,67.0,29.80,South,191,4.6,6.9,96,0.00,,,1.33,0.00,VWS V14.01,2013-10-06 03:01:00,
2013-10-05 22:02:00,68.2,67.0,29.80,South,191,5.8,6.9,96,0.00,,,1.33,0.00,VWS V14.01,2013-10-06 03:02:00,
2013-10-05 22:03:00,68.2,67.0,29.80,South,186,4.6,6.9,96,0.00,,,1.33,0.00,VWS V14.01,2013-10-06 03:03:00,
2013-10-05 22:04:00,68.2,67.0,29.80,South,180,0.0,6.9,96,0.00,,,1.33,0.00,VWS V14.01,2013-10-06 03:04:00,
2013-10-05 22:06:00,68.1,66.9,29.80,South,180,6.9,6.9,96,0.00,,,1.33,0.00,VWS V14.01,2013-10-06 03:06:00,
2013-10-05 22:07:00,68.1,66.9,29.80,South,181,4.6,6.9,96,0.00,,,1.33,0.00,VWS V14.01,2013-10-06 03:07:00,
2013-10-05 22:09:00,68.1,66.9,29.80,South,180,3.4,6.9,96,0.00,,,1.33,0.00,VWS V14.01,2013-10-06 03:09:00,
2013-10-05 22:10:00,68.1,66.9,29.80,South,177,4.6,6.9,96,0.00,,,1.33,0.00,VWS V14.01,2013-10-06 03:10:00,
2013-10-05 22:11:00,68.0,66.8,29.80,South,177,4.6,4.6,96,0.00,,,1.33,0.00,VWS V14.01,2013-10-06 03:11:00,
2013-10-05 22:14:00,68.1,66.9,29.80,South,181,0.0,8.1,96,0.00,,,1.33,0.00,VWS V14.01,2013-10-06 03:14:00,
2013-10-05 22:15:00,68.1,66.9,29.80,South,181,5.8,8.1,96,0.00,,,1.33,0.00,VWS V14.01,2013-10-06 03:15:00,
2013-10-05 22:16:00,68.1,66.9,29.80,South,190,4.6,8.1,96,0.00,,,1.33,0.00,VWS V14.01,2013-10-06 03:16:00,
2013-10-05 22:20:00,68.1,66.9,29.80,SSW,194,3.4,3.4,96,0.00,,,1.33,0.00,VWS V14.01,2013-10-06 03:20:00,
2013-10-05 22:21:00,68.1,66.9,29.80,SSW,194,2.3,3.4,96,0.00,,,1.33,0.00,VWS V14.01,2013-10-06 03:21:00,
2013-10-05 22:22:00,68.1,66.9,29.80,SSW,202,5.8,8.1,96,0.00,,,1.33,0.00,VWS V14.01,2013-10-06 03:22:00,
2013-10-05 22:24:00,68.1,66.9,29.80,SSW,198,2.3,8.1,96,0.00,,,1.33,0.00,VWS V14.01,2013-10-06 03:24:00,
2013-10-05 22:26:00,68.1,66.9,29.80,SSW,207,1.1,5.8,96,0.00,,,1.33,0.00,VWS V14.01,2013-10-06 03:26:00,
2013-10-05 22:27:00,68.1,66.9,29.80,SSW,195,3.4,8.1,96,0.00,,,1.33,0.00,VWS V14.01,2013-10-06 03:27:00,
2013-10-05 22:28:00,68.1,66.9,29.80,South,179,2.3,8.1,96,0.00,,,1.33,0.00,VWS V14.01,2013-10-06 03:28:00,
2013-10-05 22:30:00,68.1,66.9,29.80,South,182,4.6,8.1,96,0.00,,,1.33,0.00,VWS V14.01,2013-10-06 03:30:00,
2013-10-05 22:31:00,68.1,66.9,29.80,South,182,5.8,5.8,96,0.00,,,1.33,0.00,VWS V14.01,2013-10-06 03:31:00,
2013-10-05 22:32:00,68.1,66.9,29.80,South,182,2.3,5.8,96,0.00,,,1.33,0.00,VWS V14.01,2013-10-06 03:32:00,
2013-10-05 22:33:00,68.1,66.9,29.80,South,185,2.3,5.8,96,0.00,,,1.33,0.00,VWS V14.01,2013-10-06 03:33:00,
2013-10-05 22:34:00,68.1,66.9,29.80,South,185,3.4,5.8,96,0.00,,,1.33,0.00,VWS V14.01,2013-10-06 03:34:00,
2013-10-05 22:35:00,68.1,66.9,29.80,South,187,4.6,4.6,96,0.00,,,1.33,0.00,VWS V14.01,2013-10-06 03:35:00,
2013-10-05 22:36:00,68.1,66.9,29.80,South,187,2.3,4.6,96,0.00,,,1.33,0.00,VWS V14.01,2013-10-06 03:36:00,
2013-10-05 22:37:00,68.1,66.9,29.80,South,188,2.3,4.6,96,0.00,,,1.33,0.00,VWS V14.01,2013-10-06 03:37:00,
2013-10-05 22:40:00,68.1,66.9,29.79,South,188,1.1,4.6,96,0.00,,,1.33,0.00,VWS V14.01,2013-10-06 03:40:00,
2013-10-05 22:42:00,68.2,67.0,29.79,SSE,165,1.1,6.9,96,0.00,,,1.33,0.00,VWS V14.01,2013-10-06 03:42:00,
2013-10-05 22:44:00,68.2,67.0,29.79,SSE,165,5.8,6.9,96,0.00,,,1.33,0.00,VWS V14.01,2013-10-06 03:44:00,
2013-10-05 22:45:00,68.1,66.9,29.79,South,174,4.6,6.9,96,0.00,,,1.33,0.00,VWS V14.01,2013-10-06 03:45:00,
2013-10-05 22:48:00,68.1,66.9,29.79,South,169,8.1,8.1,96,0.00,,,1.33,0.00,VWS V14.01,2013-10-06 03:48:00,
2013-10-05 22:49:00,68.1,66.9,29.78,South,170,1.1,8.1,96,0.00,,,1.33,0.00,VWS V14.01,2013-10-06 03:49:00,
2013-10-05 22:50:00,68.1,66.9,29.78,South,170,0.0,8.1,96,0.00,,,1.33,0.00,VWS V14.01,2013-10-06 03:50:00,
2013-10-05 22:51:00,68.1,66.9,29.78,SSE,163,3.4,5.8,96,0.00,,,1.33,0.00,VWS V14.01,2013-10-06 03:51:00,
2013-10-05 22:53:00,68.1,66.9,29.78,SSE,161,3.4,5.8,96,0.00,,,1.33,0.00,VWS V14.01,2013-10-06 03:53:00,
2013-10-05 22:54:00,68.1,66.9,29.78,SSE,148,4.6,5.8,96,0.00,,,1.33,0.00,VWS V14.01,2013-10-06 03:54:00,
2013-10-05 22:55:00,68.1,66.9,29.77,SSE,148,6.9,6.9,96,0.00,,,1.33,0.00,VWS V14.01,2013-10-06 03:55:00,
2013-10-05 22:56:00,68.1,66.9,29.77,SSE,152,6.9,6.9,96,0.00,,,1.33,0.00,VWS V14.01,2013-10-06 03:56:00,
2013-10-05 22:58:00,68.1,66.9,29.77,SE,146,1.1,6.9,96,0.00,,,1.33,0.00,VWS V14.01,2013-10-06 03:58:00,
2013-10-05 22:59:00,68.1,66.9,29.77,SE,146,6.9,6.9,96,0.00,,,1.33,0.00,VWS V14.01,2013-10-06 03:59:00,
2013-10-05 23:00:00,68.0,66.8,29.77,SE,146,3.4,6.9,96,0.00,,,1.33,0.00,VWS V14.01,2013-10-06 04:00:00,
2013-10-05 23:01:00,68.0,66.8,29.77,East,86,5.8,5.8,96,0.00,,,1.33,0.00,VWS V14.01,2013-10-06 04:01:00,
2013-10-05 23:04:00,68.0,66.8,29.76,SE,136,1.1,5.8,96,0.00,,,1.33,0.00,VWS V14.01,2013-10-06 04:04:00,
2013-10-05 23:06:00,68.0,66.8,29.76,SE,140,0.0,3.4,96,0.00,,,1.33,0.00,VWS V14.01,2013-10-06 04:06:00,
2013-10-05 23:07:00,68.0,66.8,29.76,SE,140,0.0,3.4,96,0.00,,,1.33,0.00,VWS V14.01,2013-10-06 04:07:00,
2013-10-05 23:11:00,67.9,66.7,29.76,SE,139,2.3,5.8,96,0.00,,,1.33,0.00,VWS V14.01,2013-10-06 04:11:00,
2013-10-05 23:12:00,67.9,67.0,29.76,SE,139,0.0,5.8,97,0.00,,,1.33,0.00,VWS V14.01,2013-10-06 04:12:00,
2013-10-05 23:13:00,67.9,67.0,29.76,SE,139,2.3,5.8,97,0.00,,,1.33,0.00,VWS V14.01,2013-10-06 04:13:00,
2013-10-05 23:15:00,67.9,67.0,29.77,SE,139,4.6,5.8,97,0.00,,,1.33,0.00,VWS V14.01,2013-10-06 04:15:00,
2013-10-05 23:17:00,67.9,67.0,29.78,SE,139,2.3,4.6,97,0.00,,,1.33,0.00,VWS V14.01,2013-10-06 04:17:00,
2013-10-05 23:18:00,67.9,67.0,29.78,SSE,161,4.6,6.9,97,0.00,,,1.33,0.00,VWS V14.01,2013-10-06 04:18:00,
2013-10-05 23:20:00,68.0,67.1,29.78,SSE,163,3.4,6.9,97,0.00,,,1.33,0.00,VWS V14.01,2013-10-06 04:20:00,
2013-10-05 23:21:00,68.0,67.1,29.78,SSE,163,2.3,4.6,97,0.00,,,1.33,0.00,VWS V14.01,2013-10-06 04:21:00,
2013-10-05 23:22:00,68.0,67.1,29.77,SSE,168,3.4,5.8,97,0.00,,,1.33,0.00,VWS V14.01,2013-10-06 04:22:00,
2013-10-05 23:23:00,68.0,67.1,29.77,SSE,168,4.6,5.8,97,0.00,,,1.33,0.00,VWS V14.01,2013-10-06 04:23:00,
2013-10-05 23:24:00,68.0,67.1,29.78,South,190,4.6,6.9,97,0.00,,,1.33,0.00,VWS V14.01,2013-10-06 04:24:00,
2013-10-05 23:26:00,68.0,67.1,29.78,South,190,1.1,4.6,97,0.00,,,1.33,0.00,VWS V14.01,2013-10-06 04:26:00,
2013-10-05 23:28:00,68.0,67.1,29.78,South,190,3.4,5.8,97,0.00,,,1.33,0.00,VWS V14.01,2013-10-06 04:28:00,
2013-10-05 23:29:00,68.0,67.1,29.78,South,190,4.6,5.8,97,0.00,,,1.33,0.00,VWS V14.01,2013-10-06 04:29:00,
2013-10-05 23:34:00,68.0,67.1,29.78,South,182,1.1,6.9,97,0.00,,,1.33,0.00,VWS V14.01,2013-10-06 04:34:00,
2013-10-05 23:35:00,68.1,67.2,29.78,South,182,1.1,6.9,97,0.01,,,1.34,0.00,VWS V14.01,2013-10-06 04:35:00,
2013-10-05 23:36:00,68.0,67.1,29.77,South,180,5.8,8.1,97,0.01,,,1.34,0.00,VWS V14.01,2013-10-06 04:36:00,
2013-10-05 23:39:00,68.1,67.2,29.77,SSE,161,4.6,11.5,97,0.01,,,1.34,0.00,VWS V14.01,2013-10-06 04:39:00,
2013-10-05 23:40:00,68.1,67.2,29.78,SSE,158,3.4,11.5,97,0.01,,,1.34,0.00,VWS V14.01,2013-10-06 04:40:00,
2013-10-05 23:41:00,68.1,67.2,29.78,SSE,159,2.3,4.6,97,0.01,,,1.34,0.00,VWS V14.01,2013-10-06 04:41:00,
2013-10-05 23:43:00,68.1,67.2,29.78,SSE,159,3.4,5.8,97,0.01,,,1.34,0.00,VWS V14.01,2013-10-06 04:43:00,
2013-10-05 23:44:00,68.1,67.2,29.78,SSE,159,3.4,5.8,97,0.01,,,1.34,0.00,VWS V14.01,2013-10-06 04:44:00,
2013-10-05 23:45:00,68.1,67.2,29.78,SSE,157,4.6,5.8,97,0.01,,,1.34,0.00,VWS V14.01,2013-10-06 04:45:00,
2013-10-05 23:46:00,68.1,67.2,29.78,SSE,155,5.8,8.1,97,0.01,,,1.34,0.00,VWS V14.01,2013-10-06 04:46:00,
2013-10-05 23:47:00,68.1,67.2,29.78,SSE,157,4.6,8.1,97,0.01,,,1.34,0.00,VWS V14.01,2013-10-06 04:47:00,
2013-10-05 23:49:00,68.1,67.2,29.78,SSE,158,1.1,8.1,97,0.01,,,1.34,0.00,VWS V14.01,2013-10-06 04:49:00,
2013-10-05 23:50:00,68.1,67.2,29.78,South,170,11.5,11.5,97,0.01,,,1.34,0.00,VWS V14.01,2013-10-06 04:50:00,
2013-10-05 23:52:00,68.0,67.1,29.78,SSW,192,1.1,12.6,97,0.01,,,1.34,0.00,VWS V14.01,2013-10-06 04:52:00,
2013-10-05 23:53:00,68.1,67.2,29.78,SSE,163,5.8,12.6,97,0.01,,,1.34,0.00,VWS V14.01,2013-10-06 04:53:00,
2013-10-05 23:54:00,68.0,67.1,29.78,SSE,161,5.8,12.6,97,0.01,,,1.34,0.00,VWS V14.01,2013-10-06 04:54:00,
2013-10-05 23:55:00,68.0,67.1,29.78,ESE,123,4.6,12.6,97,0.01,,,1.34,0.00,VWS V14.01,2013-10-06 04:55:00,
2013-10-05 23:56:00,68.0,67.1,29.77,SSW,192,4.6,9.2,97,0.01,,,1.34,0.00,VWS V14.01,2013-10-06 04:56:00,
2013-10-05 23:58:00,68.0,67.1,29.78,SSE,147,9.2,10.3,97,0.01,,,1.34,0.00,VWS V14.01,2013-10-06 04:58:00,